Wetterdaten: Sonntag, 01.05.2022
Datum Zeit Temp. 2m Temp +5 cm Feuchte A. Luftdruck Regen Wind Richtung Richtung Sonnenschein UV Solar Taupunkt Windchill Windben
01.05.2022 00:00 2,1 C 0,0 C 88 % 1026,1 hPa 0,0 l/m 0,1 km/h (0 Bft) N-NW 341 0 min 0,0 UV-I 0 W/m 0,3 C 2,1 C 1,6 km/h (1 Bft)
01.05.2022 00:02 2,3 C 0,0 C 88 % 1026,0 hPa 0,0 l/m 1,2 km/h (1 Bft) N-NW 342 0 min 0,0 UV-I 0 W/m 0,5 C 2,3 C 3,2 km/h (1 Bft)
01.05.2022 00:04 2,2 C 0,0 C 88 % 1025,9 hPa 0,0 l/m 0,8 km/h (0 Bft) N-NW 342 0 min 0,0 UV-I 0 W/m 0,4 C 2,2 C 3,2 km/h (1 Bft)
01.05.2022 00:06 2,3 C 0,0 C 88 % 1026,0 hPa 0,0 l/m 0,1 km/h (0 Bft) N-NW 342 0 min 0,0 UV-I 0 W/m 0,5 C 2,3 C 1,6 km/h (1 Bft)
01.05.2022 00:08 2,3 C 0,0 C 88 % 1025,9 hPa 0,0 l/m 0,9 km/h (0 Bft) N-NW 342 0 min 0,0 UV-I 0 W/m 0,5 C 2,3 C 3,2 km/h (1 Bft)
01.05.2022 00:10 2,2 C 0,0 C 88 % 1025,9 hPa 0,0 l/m 1,1 km/h (1 Bft) N-NW 342 0 min 0,0 UV-I 0 W/m 0,4 C 2,2 C 3,2 km/h (1 Bft)
01.05.2022 00:12 2,3 C -0,6 C 88 % 1026,0 hPa 0,0 l/m 0,2 km/h (0 Bft) N-NW 342 0 min 0,0 UV-I 0 W/m 0,5 C 2,3 C 1,6 km/h (1 Bft)
01.05.2022 00:14 2,2 C -0,6 C 88 % 1026,0 hPa 0,0 l/m 1,6 km/h (1 Bft) N-NW 342 0 min 0,0 UV-I 0 W/m 0,4 C 2,2 C 3,2 km/h (1 Bft)
01.05.2022 00:16 2,1 C -0,6 C 88 % 1026,0 hPa 0,0 l/m 1,9 km/h (1 Bft) N-NW 342 0 min 0,0 UV-I 0 W/m 0,3 C 2,1 C 3,2 km/h (1 Bft)
01.05.2022 00:18 1,9 C -0,6 C 88 % 1025,9 hPa 0,0 l/m 3,3 km/h (1 Bft) N-NW 342 0 min 0,0 UV-I 0 W/m 0,1 C 1,9 C 4,8 km/h (1 Bft)
01.05.2022 00:20 1,9 C 0,0 C 88 % 1026,0 hPa 0,0 l/m 3,5 km/h (1 Bft) N-NW 342 0 min 0,0 UV-I 0 W/m 0,1 C 1,9 C 4,8 km/h (1 Bft)
01.05.2022 00:22 1,8 C 0,0 C 89 % 1026,0 hPa 0,0 l/m 2,3 km/h (1 Bft) N-NW 342 0 min 0,0 UV-I 0 W/m 0,2 C 1,8 C 3,2 km/h (1 Bft)
01.05.2022 00:24 1,8 C -0,6 C 89 % 1026,0 hPa 0,0 l/m 0,0 km/h (0 Bft) N-NW 342 0 min 0,0 UV-I 0 W/m 0,2 C 1,8 C 0,0 km/h (0 Bft)
01.05.2022 00:26 1,6 C -0,6 C 88 % 1026,0 hPa 0,0 l/m 0,0 km/h (0 Bft) N-NW 342 0 min 0,0 UV-I 0 W/m -0,2 C 1,6 C 0,0 km/h (0 Bft)
01.05.2022 00:28 1,4 C -0,6 C 88 % 1025,9 hPa 0,0 l/m 0,1 km/h (0 Bft) N-NW 342 0 min 0,0 UV-I 0 W/m -0,4 C 1,4 C 1,6 km/h (1 Bft)
01.05.2022 00:30 1,2 C -0,6 C 88 % 1026,0 hPa 0,0 l/m 0,0 km/h (0 Bft) N-NW 342 0 min 0,0 UV-I 0 W/m -0,6 C 1,2 C 0,0 km/h (0 Bft)
01.05.2022 00:32 0,9 C -0,6 C 88 % 1026,0 hPa 0,0 l/m 0,0 km/h (0 Bft) N-NW 342 0 min 0,0 UV-I 0 W/m -0,9 C 0,9 C 0,0 km/h (0 Bft)
01.05.2022 00:34 0,9 C -1,1 C 88 % 1026,0 hPa 0,0 l/m 0,0 km/h (0 Bft) N-NW 342 0 min 0,0 UV-I 0 W/m -0,9 C 0,9 C 0,0 km/h (0 Bft)
01.05.2022 00:36 0,8 C -0,6 C 88 % 1026,0 hPa 0,0 l/m 0,0 km/h (0 Bft) N-NW 342 0 min 0,0 UV-I 0 W/m -1,0 C 0,8 C 0,0 km/h (0 Bft)
01.05.2022 00:38 0,8 C -1,1 C 89 % 1026,1 hPa 0,0 l/m 0,0 km/h (0 Bft) N-NW 342 0 min 0,0 UV-I 0 W/m -0,8 C 0,8 C 1,6 km/h (1 Bft)
01.05.2022 00:40 0,9 C -1,1 C 89 % 1026,1 hPa 0,0 l/m 0,5 km/h (0 Bft) N-NW 342 0 min 0,0 UV-I 0 W/m -0,7 C 0,9 C 3,2 km/h (1 Bft)
01.05.2022 00:42 1,1 C -1,1 C 89 % 1026,0 hPa 0,0 l/m 1,1 km/h (1 Bft) N-NW 342 0 min 0,0 UV-I 0 W/m -0,5 C 1,1 C 3,2 km/h (1 Bft)
01.05.2022 00:44 1,2 C -1,1 C 89 % 1026,1 hPa 0,0 l/m 0,5 km/h (0 Bft) N-NW 342 0 min 0,0 UV-I 0 W/m -0,4 C 1,2 C 1,6 km/h (1 Bft)
01.05.2022 00:46 1,3 C -1,1 C 90 % 1026,1 hPa 0,0 l/m 0,9 km/h (0 Bft) N-NW 342 0 min 0,0 UV-I 0 W/m -0,2 C 1,3 C 1,6 km/h (1 Bft)
01.05.2022 00:48 1,4 C -1,1 C 90 % 1026,2 hPa 0,0 l/m 0,6 km/h (0 Bft) N-NW 342 0 min 0,0 UV-I 0 W/m -0,1 C 1,4 C 1,6 km/h (1 Bft)
01.05.2022 00:50 1,4 C -1,1 C 90 % 1026,2 hPa 0,0 l/m 0,0 km/h (0 Bft) N-NW 342 0 min 0,0 UV-I 0 W/m -0,1 C 1,4 C 0,0 km/h (0 Bft)
01.05.2022 00:52 1,4 C -1,1 C 90 % 1026,0 hPa 0,0 l/m 0,0 km/h (0 Bft) N-NW 342 0 min 0,0 UV-I 0 W/m -0,1 C 1,4 C 0,0 km/h (0 Bft)
01.05.2022 00:54 1,6 C -0,6 C 90 % 1026,1 hPa 0,0 l/m 0,0 km/h (0 Bft) N-NW 342 0 min 0,0 UV-I 0 W/m 0,1 C 1,6 C 0,0 km/h (0 Bft)
01.05.2022 00:56 1,7 C -0,6 C 90 % 1026,0 hPa 0,0 l/m 0,0 km/h (0 Bft) N-NW 342 0 min 0,0 UV-I 0 W/m 0,2 C 1,7 C 0,0 km/h (0 Bft)
01.05.2022 00:58 1,8 C -0,6 C 90 % 1026,1 hPa 0,0 l/m 0,0 km/h (0 Bft) N-NW 342 0 min 0,0 UV-I 0 W/m 0,3 C 1,8 C 0,0 km/h (0 Bft)
01.05.2022 01:00 1,6 C -1,1 C 89 % 1026,0 hPa 0,0 l/m 0,0 km/h (0 Bft) N-NW 342 0 min 0,0 UV-I 0 W/m -0,0 C 1,6 C 0,0 km/h (0 Bft)
01.05.2022 01:02 1,5 C -1,1 C 89 % 1026,1 hPa 0,0 l/m 0,0 km/h (0 Bft) N-NW 342 0 min 0,0 UV-I 0 W/m -0,1 C 1,5 C 0,0 km/h (0 Bft)
01.05.2022 01:04 1,4 C -1,1 C 89 % 1026,1 hPa 0,0 l/m 0,0 km/h (0 Bft) N-NW 342 0 min 0,0 UV-I 0 W/m -0,2 C 1,4 C 0,0 km/h (0 Bft)
01.05.2022 01:06 1,2 C -1,1 C 89 % 1026,1 hPa 0,0 l/m 0,0 km/h (0 Bft) N-NW 342 0 min 0,0 UV-I 0 W/m -0,4 C 1,2 C 1,6 km/h (1 Bft)
01.05.2022 01:08 1,1 C -1,1 C 89 % 1026,1 hPa 0,0 l/m 0,0 km/h (0 Bft) N-NW 342 0 min 0,0 UV-I 0 W/m -0,5 C 1,1 C 0,0 km/h (0 Bft)
01.05.2022 01:10 1,1 C -1,1 C 90 % 1026,0 hPa 0,0 l/m 0,0 km/h (0 Bft) N-NW 342 0 min 0,0 UV-I 0 W/m -0,4 C 1,1 C 0,0 km/h (0 Bft)
01.05.2022 01:12 1,1 C -1,1 C 90 % 1026,0 hPa 0,0 l/m 0,0 km/h (0 Bft) N-NW 342 0 min 0,0 UV-I 0 W/m -0,4 C 1,1 C 0,0 km/h (0 Bft)
01.05.2022 01:14 0,9 C -1,1 C 89 % 1026,0 hPa 0,0 l/m 0,0 km/h (0 Bft) N-NW 342 0 min 0,0 UV-I 0 W/m -0,7 C 0,9 C 0,0 km/h (0 Bft)
01.05.2022 01:16 0,8 C -1,1 C 89 % 1026,1 hPa 0,0 l/m 0,0 km/h (0 Bft) N-NW 342 0 min 0,0 UV-I 0 W/m -0,8 C 0,8 C 0,0 km/h (0 Bft)
01.05.2022 01:18 0,7 C -1,1 C 90 % 1026,1 hPa 0,0 l/m 0,0 km/h (0 Bft) N-NW 342 0 min 0,0 UV-I 0 W/m -0,7 C 0,7 C 0,0 km/h (0 Bft)
01.05.2022 01:20 0,8 C -1,7 C 90 % 1025,9 hPa 0,0 l/m 0,0 km/h (0 Bft) N-NW 342 0 min 0,0 UV-I 0 W/m -0,6 C 0,8 C 0,0 km/h (0 Bft)
01.05.2022 01:22 0,8 C -1,7 C 90 % 1025,9 hPa 0,0 l/m 0,0 km/h (0 Bft) N-NW 342 0 min 0,0 UV-I 0 W/m -0,6 C 0,8 C 0,0 km/h (0 Bft)
01.05.2022 01:24 0,7 C -1,7 C 90 % 1025,9 hPa 0,0 l/m 0,0 km/h (0 Bft) N-NW 342 0 min 0,0 UV-I 0 W/m -0,7 C 0,7 C 0,0 km/h (0 Bft)
01.05.2022 01:26 0,7 C -1,7 C 90 % 1026,1 hPa 0,0 l/m 0,0 km/h (0 Bft) N-NW 342 0 min 0,0 UV-I 0 W/m -0,7 C 0,7 C 0,0 km/h (0 Bft)
01.05.2022 01:28 0,7 C -1,7 C 90 % 1025,9 hPa 0,0 l/m 0,0 km/h (0 Bft) N-NW 342 0 min 0,0 UV-I 0 W/m -0,7 C 0,7 C 0,0 km/h (0 Bft)
01.05.2022 01:30 0,8 C -1,1 C 90 % 1026,0 hPa 0,0 l/m 0,0 km/h (0 Bft) N-NW 342 0 min 0,0 UV-I 0 W/m -0,6 C 0,8 C 0,0 km/h (0 Bft)
01.05.2022 01:32 0,8 C -1,1 C 90 % 1025,9 hPa 0,0 l/m 0,0 km/h (0 Bft) N-NW 342 0 min 0,0 UV-I 0 W/m -0,6 C 0,8 C 0,0 km/h (0 Bft)
01.05.2022 01:34 0,8 C -1,7 C 90 % 1026,0 hPa 0,0 l/m 0,0 km/h (0 Bft) N-NW 342 0 min 0,0 UV-I 0 W/m -0,6 C 0,8 C 0,0 km/h (0 Bft)
01.05.2022 01:36 0,7 C -1,7 C 90 % 1025,9 hPa 0,0 l/m 0,0 km/h (0 Bft) N-NW 342 0 min 0,0 UV-I 0 W/m -0,7 C 0,7 C 0,0 km/h (0 Bft)
01.05.2022 01:38 0,7 C -1,7 C 90 % 1025,9 hPa 0,0 l/m 0,0 km/h (0 Bft) N-NW 342 0 min 0,0 UV-I 0 W/m -0,7 C 0,7 C 0,0 km/h (0 Bft)
01.05.2022 01:40 0,6 C -1,7 C 90 % 1026,0 hPa 0,0 l/m 0,0 km/h (0 Bft) N-NW 342 0 min 0,0 UV-I 0 W/m -0,8 C 0,6 C 0,0 km/h (0 Bft)
01.05.2022 01:42 0,6 C -1,7 C 90 % 1025,9 hPa 0,0 l/m 0,0 km/h (0 Bft) N-NW 342 0 min 0,0 UV-I 0 W/m -0,8 C 0,6 C 0,0 km/h (0 Bft)
01.05.2022 01:44 0,6 C -1,7 C 90 % 1025,9 hPa 0,0 l/m 0,0 km/h (0 Bft) N-NW 342 0 min 0,0 UV-I 0 W/m -0,8 C 0,6 C 0,0 km/h (0 Bft)
01.05.2022 01:46 0,3 C -1,7 C 89 % 1025,9 hPa 0,0 l/m 0,0 km/h (0 Bft) N-NW 342 0 min 0,0 UV-I 0 W/m -1,3 C 0,3 C 0,0 km/h (0 Bft)
01.05.2022 01:48 0,2 C -1,7 C 89 % 1025,9 hPa 0,0 l/m 0,0 km/h (0 Bft) N-NW 342 0 min 0,0 UV-I 0 W/m -1,4 C 0,2 C 0,0 km/h (0 Bft)
01.05.2022 01:50 0,1 C -1,1 C 90 % 1025,9 hPa 0,0 l/m 0,0 km/h (0 Bft) N-NW 342 0 min 0,0 UV-I 0 W/m -1,3 C 0,1 C 0,0 km/h (0 Bft)
01.05.2022 01:52 0,1 C -1,1 C 90 % 1025,8 hPa 0,0 l/m 0,0 km/h (0 Bft) N-NW 342 0 min 0,0 UV-I 0 W/m -1,3 C 0,1 C 0,0 km/h (0 Bft)
01.05.2022 01:54 0,1 C -1,1 C 90 % 1025,9 hPa 0,0 l/m 0,2 km/h (0 Bft) N-NW 342 0 min 0,0 UV-I 0 W/m -1,3 C 0,1 C 1,6 km/h (1 Bft)
01.05.2022 01:56 0,2 C -1,7 C 90 % 1025,7 hPa 0,0 l/m 1,3 km/h (1 Bft) N-NW 342 0 min 0,0 UV-I 0 W/m -1,2 C 0,2 C 3,2 km/h (1 Bft)
01.05.2022 01:58 0,4 C -1,1 C 91 % 1025,8 hPa 0,0 l/m 0,8 km/h (0 Bft) N-NW 342 0 min 0,0 UV-I 0 W/m -0,9 C 0,4 C 1,6 km/h (1 Bft)
01.05.2022 02:00 0,7 C -1,1 C 91 % 1025,8 hPa 0,0 l/m 1,2 km/h (1 Bft) N-NW 342 0 min 0,0 UV-I 0 W/m -0,6 C 0,7 C 3,2 km/h (1 Bft)
01.05.2022 02:02 0,9 C -1,1 C 91 % 1025,8 hPa 0,0 l/m 0,1 km/h (0 Bft) N-NW 342 0 min 0,0 UV-I 0 W/m -0,4 C 0,9 C 1,6 km/h (1 Bft)
01.05.2022 02:04 1,1 C -1,1 C 91 % 1025,8 hPa 0,0 l/m 0,0 km/h (0 Bft) N-NW 342 0 min 0,0 UV-I 0 W/m -0,2 C 1,1 C 0,0 km/h (0 Bft)
01.05.2022 02:06 1,0 C -1,1 C 91 % 1025,8 hPa 0,0 l/m 0,0 km/h (0 Bft) N-NW 342 0 min 0,0 UV-I 0 W/m -0,3 C 1,0 C 0,0 km/h (0 Bft)
01.05.2022 02:08 0,8 C -1,1 C 90 % 1025,8 hPa 0,0 l/m 0,0 km/h (0 Bft) N-NW 342 0 min 0,0 UV-I 0 W/m -0,6 C 0,8 C 0,0 km/h (0 Bft)
01.05.2022 02:10 0,8 C -1,1 C 90 % 1025,8 hPa 0,0 l/m 0,0 km/h (0 Bft) N-NW 342 0 min 0,0 UV-I 0 W/m -0,6 C 0,8 C 0,0 km/h (0 Bft)
01.05.2022 02:12 0,9 C -1,7 C 91 % 1025,8 hPa 0,0 l/m 0,0 km/h (0 Bft) N-NW 342 0 min 0,0 UV-I 0 W/m -0,4 C 0,9 C 0,0 km/h (0 Bft)
01.05.2022 02:14 0,8 C -1,7 C 91 % 1025,8 hPa 0,0 l/m 0,0 km/h (0 Bft) N-NW 342 0 min 0,0 UV-I 0 W/m -0,5 C 0,8 C 0,0 km/h (0 Bft)
01.05.2022 02:16 0,7 C -1,7 C 90 % 1025,8 hPa 0,0 l/m 0,4 km/h (0 Bft) N-NW 342 0 min 0,0 UV-I 0 W/m -0,7 C 0,7 C 1,6 km/h (1 Bft)
01.05.2022 02:18 0,6 C -1,7 C 90 % 1025,8 hPa 0,0 l/m 0,0 km/h (0 Bft) N-NW 342 0 min 0,0 UV-I 0 W/m -0,8 C 0,6 C 0,0 km/h (0 Bft)
01.05.2022 02:20 0,6 C -1,7 C 90 % 1025,8 hPa 0,0 l/m 0,0 km/h (0 Bft) N-NW 342 0 min 0,0 UV-I 0 W/m -0,8 C 0,6 C 0,0 km/h (0 Bft)
01.05.2022 02:22 0,4 C -1,7 C 90 % 1025,7 hPa 0,0 l/m 0,0 km/h (0 Bft) N-NW 342 0 min 0,0 UV-I 0 W/m -1,0 C 0,4 C 0,0 km/h (0 Bft)
01.05.2022 02:24 0,4 C -1,7 C 91 % 1025,7 hPa 0,0 l/m 0,0 km/h (0 Bft) N-NW 342 0 min 0,0 UV-I 0 W/m -0,9 C 0,4 C 0,0 km/h (0 Bft)
01.05.2022 02:26 0,4 C -1,7 C 91 % 1025,8 hPa 0,0 l/m 0,0 km/h (0 Bft) N-NW 342 0 min 0,0 UV-I 0 W/m -0,9 C 0,4 C 0,0 km/h (0 Bft)
01.05.2022 02:28 0,4 C -1,7 C 90 % 1025,7 hPa 0,0 l/m 0,5 km/h (0 Bft) N-NW 342 0 min 0,0 UV-I 0 W/m -1,0 C 0,4 C 1,6 km/h (1 Bft)
01.05.2022 02:30 0,3 C -1,7 C 90 % 1025,8 hPa 0,0 l/m 0,7 km/h (0 Bft) N-NW 342 0 min 0,0 UV-I 0 W/m -1,1 C 0,3 C 1,6 km/h (1 Bft)
01.05.2022 02:32 0,1 C -1,7 C 90 % 1025,8 hPa 0,0 l/m 0,4 km/h (0 Bft) N-NW 342 0 min 0,0 UV-I 0 W/m -1,3 C 0,1 C 1,6 km/h (1 Bft)
01.05.2022 02:34 -0,1 C -1,7 C 90 % 1025,8 hPa 0,0 l/m 0,5 km/h (0 Bft) N-NW 342 0 min 0,0 UV-I 0 W/m -1,5 C -0,1 C 1,6 km/h (1 Bft)
01.05.2022 02:36 0,1 C -1,7 C 91 % 1025,7 hPa 0,0 l/m 0,6 km/h (0 Bft) N-NW 342 0 min 0,0 UV-I 0 W/m -1,2 C 0,1 C 1,6 km/h (1 Bft)
01.05.2022 02:38 0,4 C -1,7 C 91 % 1025,7 hPa 0,0 l/m 0,9 km/h (0 Bft) N-NW 342 0 min 0,0 UV-I 0 W/m -0,9 C 0,4 C 3,2 km/h (1 Bft)
01.05.2022 02:40 0,6 C -1,7 C 91 % 1025,6 hPa 0,0 l/m 0,0 km/h (0 Bft) N-NW 342 0 min 0,0 UV-I 0 W/m -0,7 C 0,6 C 0,0 km/h (0 Bft)
01.05.2022 02:42 0,6 C -1,7 C 91 % 1025,7 hPa 0,0 l/m 0,0 km/h (0 Bft) N-NW 342 0 min 0,0 UV-I 0 W/m -0,7 C 0,6 C 0,0 km/h (0 Bft)
01.05.2022 02:44 0,4 C -1,1 C 91 % 1025,7 hPa 0,0 l/m 0,0 km/h (0 Bft) N-NW 342 0 min 0,0 UV-I 0 W/m -0,9 C 0,4 C 0,0 km/h (0 Bft)
01.05.2022 02:46 0,4 C -1,7 C 91 % 1025,6 hPa 0,0 l/m 0,0 km/h (0 Bft) N-NW 342 0 min 0,0 UV-I 0 W/m -0,9 C 0,4 C 0,0 km/h (0 Bft)
01.05.2022 02:48 0,3 C -1,1 C 91 % 1025,6 hPa 0,0 l/m 0,0 km/h (0 Bft) N-NW 342 0 min 0,0 UV-I 0 W/m -1,0 C 0,3 C 0,0 km/h (0 Bft)
01.05.2022 02:50 0,4 C -1,1 C 91 % 1025,7 hPa 0,0 l/m 0,0 km/h (0 Bft) N-NW 342 0 min 0,0 UV-I 0 W/m -0,9 C 0,4 C 0,0 km/h (0 Bft)
01.05.2022 02:52 0,4 C -1,1 C 91 % 1025,6 hPa 0,0 l/m 0,0 km/h (0 Bft) N-NW 342 0 min 0,0 UV-I 0 W/m -0,9 C 0,4 C 0,0 km/h (0 Bft)
01.05.2022 02:54 0,6 C -1,1 C 91 % 1025,6 hPa 0,0 l/m 0,0 km/h (0 Bft) N-NW 342 0 min 0,0 UV-I 0 W/m -0,7 C 0,6 C 0,0 km/h (0 Bft)
01.05.2022 02:56 0,7 C -1,1 C 91 % 1025,5 hPa 0,0 l/m 0,0 km/h (0 Bft) N-NW 342 0 min 0,0 UV-I 0 W/m -0,6 C 0,7 C 0,0 km/h (0 Bft)
01.05.2022 02:58 0,7 C -1,1 C 91 % 1025,7 hPa 0,0 l/m 0,0 km/h (0 Bft) N-NW 342 0 min 0,0 UV-I 0 W/m -0,6 C 0,7 C 0,0 km/h (0 Bft)
01.05.2022 03:00 0,4 C -1,1 C 91 % 1025,7 hPa 0,0 l/m 0,0 km/h (0 Bft) N-NW 342 0 min 0,0 UV-I 0 W/m -0,9 C 0,4 C 0,0 km/h (0 Bft)
01.05.2022 03:02 0,3 C -1,1 C 91 % 1025,6 hPa 0,0 l/m 0,0 km/h (0 Bft) N-NW 342 0 min 0,0 UV-I 0 W/m -1,0 C 0,3 C 0,0 km/h (0 Bft)
01.05.2022 03:04 0,3 C -1,1 C 91 % 1025,6 hPa 0,0 l/m 0,0 km/h (0 Bft) N-NW 342 0 min 0,0 UV-I 0 W/m -1,0 C 0,3 C 0,0 km/h (0 Bft)
01.05.2022 03:06 0,3 C -1,1 C 91 % 1025,6 hPa 0,0 l/m 0,7 km/h (0 Bft) N-NW 342 0 min 0,0 UV-I 0 W/m -1,0 C 0,3 C 1,6 km/h (1 Bft)
01.05.2022 03:08 0,1 C -1,1 C 91 % 1025,7 hPa 0,0 l/m 0,0 km/h (0 Bft) N-NW 342 0 min 0,0 UV-I 0 W/m -1,2 C 0,1 C 0,0 km/h (0 Bft)
01.05.2022 03:10 0,1 C -1,1 C 91 % 1025,6 hPa 0,0 l/m 0,2 km/h (0 Bft) N-NW 342 0 min 0,0 UV-I 0 W/m -1,2 C 0,1 C 1,6 km/h (1 Bft)
01.05.2022 03:12 0,0 C -1,1 C 91 % 1025,6 hPa 0,0 l/m 0,0 km/h (0 Bft) N-NW 342 0 min 0,0 UV-I 0 W/m -1,3 C 0,0 C 1,6 km/h (1 Bft)
01.05.2022 03:14 0,0 C -0,6 C 91 % 1025,7 hPa 0,0 l/m 0,0 km/h (0 Bft) N-NW 342 0 min 0,0 UV-I 0 W/m -1,3 C 0,0 C 0,0 km/h (0 Bft)
01.05.2022 03:16 0,2 C -0,6 C 91 % 1025,6 hPa 0,0 l/m 0,7 km/h (0 Bft) N-NW 342 0 min 0,0 UV-I 0 W/m -1,1 C 0,2 C 1,6 km/h (1 Bft)
01.05.2022 03:18 0,3 C -0,6 C 92 % 1025,6 hPa 0,0 l/m 0,7 km/h (0 Bft) N-NW 342 0 min 0,0 UV-I 0 W/m -0,8 C 0,3 C 1,6 km/h (1 Bft)
01.05.2022 03:20 0,5 C -0,6 C 92 % 1025,6 hPa 0,0 l/m 0,0 km/h (0 Bft) N-NW 342 0 min 0,0 UV-I 0 W/m -0,6 C 0,5 C 0,0 km/h (0 Bft)
01.05.2022 03:22 0,5 C 0,0 C 91 % 1025,6 hPa 0,0 l/m 0,0 km/h (0 Bft) N-NW 342 0 min 0,0 UV-I 0 W/m -0,8 C 0,5 C 0,0 km/h (0 Bft)
01.05.2022 03:24 0,6 C 0,0 C 91 % 1025,7 hPa 0,0 l/m 0,0 km/h (0 Bft) N-NW 342 0 min 0,0 UV-I 0 W/m -0,7 C 0,6 C 0,0 km/h (0 Bft)
01.05.2022 03:26 0,7 C 0,0 C 92 % 1025,6 hPa 0,0 l/m 1,0 km/h (0 Bft) N-NW 342 0 min 0,0 UV-I 0 W/m -0,4 C 0,7 C 1,6 km/h (1 Bft)
01.05.2022 03:28 0,8 C 0,0 C 92 % 1025,6 hPa 0,0 l/m 0,2 km/h (0 Bft) N-NW 342 0 min 0,0 UV-I 0 W/m -0,3 C 0,8 C 1,6 km/h (1 Bft)
01.05.2022 03:30 0,7 C 0,0 C 91 % 1025,6 hPa 0,0 l/m 0,4 km/h (0 Bft) N-NW 342 0 min 0,0 UV-I 0 W/m -0,6 C 0,7 C 1,6 km/h (1 Bft)
01.05.2022 03:32 0,8 C 0,0 C 91 % 1025,5 hPa 0,0 l/m 1,1 km/h (1 Bft) N-NW 342 0 min 0,0 UV-I 0 W/m -0,5 C 0,8 C 1,6 km/h (1 Bft)
01.05.2022 03:34 1,0 C 0,0 C 92 % 1025,5 hPa 0,0 l/m 1,1 km/h (1 Bft) N-NW 342 0 min 0,0 UV-I 0 W/m -0,2 C 1,0 C 3,2 km/h (1 Bft)
01.05.2022 03:36 0,8 C 0,0 C 91 % 1025,5 hPa 0,0 l/m 0,0 km/h (0 Bft) N-NW 342 0 min 0,0 UV-I 0 W/m -0,5 C 0,8 C 0,0 km/h (0 Bft)
01.05.2022 03:38 0,6 C 0,6 C 91 % 1025,6 hPa 0,0 l/m 0,3 km/h (0 Bft) N-NW 342 0 min 0,0 UV-I 0 W/m -0,7 C 0,6 C 1,6 km/h (1 Bft)
01.05.2022 03:40 0,6 C 0,6 C 91 % 1025,5 hPa 0,0 l/m 0,6 km/h (0 Bft) N-NW 342 0 min 0,0 UV-I 0 W/m -0,7 C 0,6 C 1,6 km/h (1 Bft)
01.05.2022 03:42 0,6 C 0,0 C 91 % 1025,6 hPa 0,0 l/m 0,0 km/h (0 Bft) N-NW 342 0 min 0,0 UV-I 0 W/m -0,7 C 0,6 C 0,0 km/h (0 Bft)
01.05.2022 03:44 0,7 C 0,0 C 91 % 1025,5 hPa 0,0 l/m 0,0 km/h (0 Bft) N-NW 342 0 min 0,0 UV-I 0 W/m -0,6 C 0,7 C 0,0 km/h (0 Bft)
01.05.2022 03:46 0,8 C -0,6 C 92 % 1025,5 hPa 0,0 l/m 0,0 km/h (0 Bft) N-NW 342 0 min 0,0 UV-I 0 W/m -0,3 C 0,8 C 0,0 km/h (0 Bft)
01.05.2022 03:48 0,9 C -0,6 C 91 % 1025,6 hPa 0,0 l/m 0,0 km/h (0 Bft) N-NW 342 0 min 0,0 UV-I 0 W/m -0,4 C 0,9 C 1,6 km/h (1 Bft)
01.05.2022 03:50 0,9 C -0,6 C 92 % 1025,5 hPa 0,0 l/m 0,0 km/h (0 Bft) N-NW 342 0 min 0,0 UV-I 0 W/m -0,2 C 0,9 C 0,0 km/h (0 Bft)
01.05.2022 03:52 1,1 C -0,6 C 92 % 1025,5 hPa 0,0 l/m 0,0 km/h (0 Bft) N-NW 342 0 min 0,0 UV-I 0 W/m -0,1 C 1,1 C 0,0 km/h (0 Bft)
01.05.2022 03:54 1,3 C -0,6 C 92 % 1025,5 hPa 0,0 l/m 0,0 km/h (0 Bft) N-NW 342 0 min 0,0 UV-I 0 W/m 0,1 C 1,3 C 0,0 km/h (0 Bft)
01.05.2022 03:56 1,3 C -0,6 C 91 % 1025,5 hPa 0,0 l/m 0,3 km/h (0 Bft) N-NW 342 0 min 0,0 UV-I 0 W/m -0,0 C 1,3 C 1,6 km/h (1 Bft)
01.05.2022 03:58 1,4 C -0,6 C 92 % 1025,5 hPa 0,0 l/m 1,0 km/h (0 Bft) N-NW 342 0 min 0,0 UV-I 0 W/m 0,2 C 1,4 C 1,6 km/h (1 Bft)
01.05.2022 04:00 1,5 C -0,6 C 92 % 1025,5 hPa 0,0 l/m 0,0 km/h (0 Bft) N-NW 342 0 min 0,0 UV-I 0 W/m 0,3 C 1,5 C 1,6 km/h (1 Bft)
01.05.2022 04:02 1,6 C -0,6 C 92 % 1025,5 hPa 0,0 l/m 0,0 km/h (0 Bft) N-NW 342 0 min 0,0 UV-I 0 W/m 0,4 C 1,6 C 0,0 km/h (0 Bft)
01.05.2022 04:04 1,4 C -0,6 C 91 % 1025,5 hPa 0,0 l/m 0,8 km/h (0 Bft) N-NW 342 0 min 0,0 UV-I 0 W/m 0,1 C 1,4 C 1,6 km/h (1 Bft)
01.05.2022 04:06 1,3 C -0,6 C 91 % 1025,5 hPa 0,0 l/m 0,2 km/h (0 Bft) N-NW 342 0 min 0,0 UV-I 0 W/m -0,0 C 1,3 C 1,6 km/h (1 Bft)
01.05.2022 04:08 1,4 C -0,6 C 92 % 1025,6 hPa 0,0 l/m 1,0 km/h (0 Bft) N-NW 342 0 min 0,0 UV-I 0 W/m 0,2 C 1,4 C 1,6 km/h (1 Bft)
01.05.2022 04:10 1,2 C -1,1 C 91 % 1025,5 hPa 0,0 l/m 0,8 km/h (0 Bft) N-NW 342 0 min 0,0 UV-I 0 W/m -0,1 C 1,2 C 1,6 km/h (1 Bft)
01.05.2022 04:12 0,9 C -1,1 C 91 % 1025,4 hPa 0,0 l/m 0,0 km/h (0 Bft) N-NW 342 0 min 0,0 UV-I 0 W/m -0,4 C 0,9 C 1,6 km/h (1 Bft)
01.05.2022 04:14 0,6 C -1,1 C 90 % 1025,6 hPa 0,0 l/m 0,0 km/h (0 Bft) N-NW 342 0 min 0,0 UV-I 0 W/m -0,8 C 0,6 C 0,0 km/h (0 Bft)
01.05.2022 04:16 0,4 C -1,1 C 91 % 1025,5 hPa 0,0 l/m 0,1 km/h (0 Bft) N-NW 342 0 min 0,0 UV-I 0 W/m -0,9 C 0,4 C 1,6 km/h (1 Bft)
01.05.2022 04:18 0,4 C -1,1 C 91 % 1025,5 hPa 0,0 l/m 0,2 km/h (0 Bft) N-NW 342 0 min 0,0 UV-I 0 W/m -0,9 C 0,4 C 1,6 km/h (1 Bft)
01.05.2022 04:20 0,4 C -1,7 C 91 % 1025,4 hPa 0,0 l/m 0,3 km/h (0 Bft) N-NW 342 0 min 0,0 UV-I 0 W/m -0,9 C 0,4 C 1,6 km/h (1 Bft)
01.05.2022 04:22 0,6 C -1,7 C 91 % 1025,5 hPa 0,0 l/m 0,3 km/h (0 Bft) N-NW 342 0 min 0,0 UV-I 0 W/m -0,7 C 0,6 C 1,6 km/h (1 Bft)
01.05.2022 04:24 0,6 C -1,1 C 92 % 1025,5 hPa 0,0 l/m 0,1 km/h (0 Bft) N-NW 342 0 min 0,0 UV-I 0 W/m -0,5 C 0,6 C 1,6 km/h (1 Bft)
01.05.2022 04:26 0,5 C -1,7 C 91 % 1025,4 hPa 0,0 l/m 0,0 km/h (0 Bft) N-NW 342 0 min 0,0 UV-I 0 W/m -0,8 C 0,5 C 0,0 km/h (0 Bft)
01.05.2022 04:28 0,3 C -1,1 C 91 % 1025,5 hPa 0,0 l/m 0,0 km/h (0 Bft) N-NW 342 0 min 0,0 UV-I 0 W/m -1,0 C 0,3 C 0,0 km/h (0 Bft)
01.05.2022 04:30 0,3 C -1,1 C 91 % 1025,4 hPa 0,0 l/m 0,0 km/h (0 Bft) N-NW 342 0 min 0,0 UV-I 0 W/m -1,0 C 0,3 C 0,0 km/h (0 Bft)
01.05.2022 04:32 0,2 C -1,1 C 91 % 1025,4 hPa 0,0 l/m 0,2 km/h (0 Bft) N-NW 342 0 min 0,0 UV-I 0 W/m -1,1 C 0,2 C 1,6 km/h (1 Bft)
01.05.2022 04:34 0,3 C -1,1 C 92 % 1025,4 hPa 0,0 l/m 0,8 km/h (0 Bft) N-NW 342 0 min 0,0 UV-I 0 W/m -0,8 C 0,3 C 1,6 km/h (1 Bft)
01.05.2022 04:36 0,8 C -1,1 C 92 % 1025,4 hPa 0,0 l/m 0,0 km/h (0 Bft) N-NW 342 0 min 0,0 UV-I 0 W/m -0,3 C 0,8 C 0,0 km/h (0 Bft)
01.05.2022 04:38 0,9 C -0,6 C 92 % 1025,4 hPa 0,0 l/m 0,0 km/h (0 Bft) N-NW 342 0 min 0,0 UV-I 0 W/m -0,2 C 0,9 C 1,6 km/h (1 Bft)
01.05.2022 04:40 1,0 C -0,6 C 92 % 1025,4 hPa 0,0 l/m 0,0 km/h (0 Bft) N-NW 342 0 min 0,0 UV-I 0 W/m -0,2 C 1,0 C 0,0 km/h (0 Bft)
01.05.2022 04:42 1,0 C -1,1 C 92 % 1025,3 hPa 0,0 l/m 0,0 km/h (0 Bft) N-NW 342 0 min 0,0 UV-I 0 W/m -0,2 C 1,0 C 0,0 km/h (0 Bft)
01.05.2022 04:44 0,9 C -0,6 C 92 % 1025,4 hPa 0,0 l/m 0,0 km/h (0 Bft) N-NW 342 0 min 0,0 UV-I 0 W/m -0,2 C 0,9 C 0,0 km/h (0 Bft)
01.05.2022 04:46 0,9 C -0,6 C 92 % 1025,4 hPa 0,0 l/m 0,0 km/h (0 Bft) N-NW 342 0 min 0,0 UV-I 0 W/m -0,2 C 0,9 C 0,0 km/h (0 Bft)
01.05.2022 04:48 1,0 C -0,6 C 92 % 1025,3 hPa 0,0 l/m 0,0 km/h (0 Bft) N-NW 342 0 min 0,0 UV-I 0 W/m -0,2 C 1,0 C 0,0 km/h (0 Bft)
01.05.2022 04:50 1,1 C -0,6 C 92 % 1025,3 hPa 0,0 l/m 0,0 km/h (0 Bft) N-NW 342 0 min 0,0 UV-I 0 W/m -0,1 C 1,1 C 1,6 km/h (1 Bft)
01.05.2022 04:52 1,3 C -0,6 C 92 % 1025,4 hPa 0,0 l/m 0,5 km/h (0 Bft) N-NW 342 0 min 0,0 UV-I 0 W/m 0,1 C 1,3 C 1,6 km/h (1 Bft)
01.05.2022 04:54 1,3 C -0,6 C 92 % 1025,3 hPa 0,0 l/m 0,6 km/h (0 Bft) N-NW 342 0 min 0,0 UV-I 0 W/m 0,1 C 1,3 C 3,2 km/h (1 Bft)
01.05.2022 04:56 1,3 C -0,6 C 92 % 1025,4 hPa 0,0 l/m 0,0 km/h (0 Bft) N-NW 342 0 min 0,0 UV-I 0 W/m 0,1 C 1,3 C 1,6 km/h (1 Bft)
01.05.2022 04:58 1,4 C 0,0 C 92 % 1025,3 hPa 0,0 l/m 0,4 km/h (0 Bft) N-NW 342 0 min 0,0 UV-I 0 W/m 0,2 C 1,4 C 1,6 km/h (1 Bft)
01.05.2022 05:00 1,4 C 0,0 C 92 % 1025,3 hPa 0,0 l/m 0,0 km/h (0 Bft) N-NW 342 0 min 0,0 UV-I 0 W/m 0,2 C 1,4 C 0,0 km/h (0 Bft)
01.05.2022 05:02 1,6 C 0,0 C 92 % 1025,3 hPa 0,0 l/m 0,0 km/h (0 Bft) N-NW 342 0 min 0,0 UV-I 0 W/m 0,4 C 1,6 C 0,0 km/h (0 Bft)
01.05.2022 05:04 1,6 C 0,0 C 92 % 1025,3 hPa 0,0 l/m 0,0 km/h (0 Bft) N-NW 342 0 min 0,0 UV-I 0 W/m 0,4 C 1,6 C 0,0 km/h (0 Bft)
01.05.2022 05:06 1,5 C -0,6 C 92 % 1025,3 hPa 0,0 l/m 0,0 km/h (0 Bft) N-NW 342 0 min 0,0 UV-I 0 W/m 0,3 C 1,5 C 0,0 km/h (0 Bft)
01.05.2022 05:08 1,4 C 0,0 C 92 % 1025,2 hPa 0,0 l/m 0,0 km/h (0 Bft) N-NW 342 0 min 0,0 UV-I 0 W/m 0,2 C 1,4 C 0,0 km/h (0 Bft)
01.05.2022 05:10 1,3 C -0,6 C 91 % 1025,2 hPa 0,0 l/m 0,0 km/h (0 Bft) N-NW 342 0 min 0,0 UV-I 0 W/m -0,0 C 1,3 C 0,0 km/h (0 Bft)
01.05.2022 05:12 1,3 C -0,6 C 92 % 1025,2 hPa 0,0 l/m 0,0 km/h (0 Bft) N-NW 342 0 min 0,0 UV-I 0 W/m 0,1 C 1,3 C 0,0 km/h (0 Bft)
01.05.2022 05:14 1,3 C 0,0 C 91 % 1025,3 hPa 0,0 l/m 0,0 km/h (0 Bft) N-NW 342 0 min 0,0 UV-I 0 W/m -0,0 C 1,3 C 0,0 km/h (0 Bft)
01.05.2022 05:16 1,2 C 0,0 C 91 % 1025,2 hPa 0,0 l/m 0,0 km/h (0 Bft) N-NW 342 0 min 0,0 UV-I 0 W/m -0,1 C 1,2 C 0,0 km/h (0 Bft)
01.05.2022 05:18 1,1 C 0,0 C 92 % 1025,2 hPa 0,0 l/m 0,0 km/h (0 Bft) N-NW 342 0 min 0,0 UV-I 0 W/m -0,1 C 1,1 C 0,0 km/h (0 Bft)
01.05.2022 05:20 1,1 C 0,0 C 92 % 1025,1 hPa 0,0 l/m 0,0 km/h (0 Bft) N-NW 342 0 min 0,0 UV-I 0 W/m -0,1 C 1,1 C 0,0 km/h (0 Bft)
01.05.2022 05:22 1,1 C 0,0 C 92 % 1025,2 hPa 0,0 l/m 0,0 km/h (0 Bft) N-NW 342 0 min 0,0 UV-I 0 W/m -0,1 C 1,1 C 0,0 km/h (0 Bft)
01.05.2022 05:24 1,2 C 0,0 C 92 % 1025,2 hPa 0,0 l/m 0,0 km/h (0 Bft) N-NW 342 0 min 0,0 UV-I 0 W/m 0,0 C 1,2 C 0,0 km/h (0 Bft)
01.05.2022 05:26 1,3 C 0,6 C 92 % 1025,2 hPa 0,0 l/m 0,0 km/h (0 Bft) N-NW 342 0 min 0,0 UV-I 0 W/m 0,1 C 1,3 C 0,0 km/h (0 Bft)
01.05.2022 05:28 1,3 C 0,6 C 92 % 1025,2 hPa 0,0 l/m 0,0 km/h (0 Bft) N-NW 342 0 min 0,0 UV-I 0 W/m 0,1 C 1,3 C 0,0 km/h (0 Bft)
01.05.2022 05:30 1,3 C 0,6 C 92 % 1025,2 hPa 0,0 l/m 0,0 km/h (0 Bft) N-NW 342 0 min 0,0 UV-I 0 W/m 0,1 C 1,3 C 0,0 km/h (0 Bft)
01.05.2022 05:32 1,2 C 0,6 C 92 % 1025,2 hPa 0,0 l/m 0,0 km/h (0 Bft) N-NW 342 0 min 0,0 UV-I 0 W/m 0,0 C 1,2 C 0,0 km/h (0 Bft)
01.05.2022 05:34 1,1 C 0,6 C 92 % 1025,2 hPa 0,0 l/m 0,0 km/h (0 Bft) N-NW 342 0 min 0,0 UV-I 0 W/m -0,1 C 1,1 C 0,0 km/h (0 Bft)
01.05.2022 05:36 0,9 C 0,6 C 92 % 1025,2 hPa 0,0 l/m 0,0 km/h (0 Bft) N-NW 342 0 min 0,0 UV-I 0 W/m -0,2 C 0,9 C 0,0 km/h (0 Bft)
01.05.2022 05:38 0,9 C 0,6 C 91 % 1025,1 hPa 0,0 l/m 0,0 km/h (0 Bft) N-NW 342 0 min 0,0 UV-I 0 W/m -0,4 C 0,9 C 0,0 km/h (0 Bft)
01.05.2022 05:40 0,8 C 0,6 C 92 % 1025,2 hPa 0,0 l/m 0,0 km/h (0 Bft) N-NW 342 0 min 0,0 UV-I 0 W/m -0,3 C 0,8 C 0,0 km/h (0 Bft)
01.05.2022 05:42 0,8 C 0,6 C 92 % 1025,1 hPa 0,0 l/m 0,0 km/h (0 Bft) N-NW 342 0 min 0,0 UV-I 0 W/m -0,3 C 0,8 C 0,0 km/h (0 Bft)
01.05.2022 05:44 0,9 C 0,6 C 92 % 1025,1 hPa 0,0 l/m 0,0 km/h (0 Bft) N-NW 342 0 min 0,0 UV-I 0 W/m -0,2 C 0,9 C 1,6 km/h (1 Bft)
01.05.2022 05:46 1,2 C 0,6 C 92 % 1025,2 hPa 0,0 l/m 0,2 km/h (0 Bft) N-NW 342 0 min 0,0 UV-I 0 W/m 0,0 C 1,2 C 1,6 km/h (1 Bft)
01.05.2022 05:48 1,3 C 0,6 C 92 % 1025,2 hPa 0,0 l/m 0,0 km/h (0 Bft) N-NW 342 0 min 0,0 UV-I 0 W/m 0,1 C 1,3 C 0,0 km/h (0 Bft)
01.05.2022 05:50 1,4 C 0,6 C 92 % 1025,0 hPa 0,0 l/m 0,0 km/h (0 Bft) N-NW 342 0 min 0,0 UV-I 0 W/m 0,2 C 1,4 C 1,6 km/h (1 Bft)
01.05.2022 05:52 1,5 C 0,6 C 92 % 1025,0 hPa 0,0 l/m 0,1 km/h (0 Bft) N-NW 342 0 min 0,0 UV-I 0 W/m 0,3 C 1,5 C 1,6 km/h (1 Bft)
01.05.2022 05:54 1,6 C 1,1 C 92 % 1025,2 hPa 0,0 l/m 0,0 km/h (0 Bft) N-NW 342 0 min 0,0 UV-I 0 W/m 0,4 C 1,6 C 0,0 km/h (0 Bft)
01.05.2022 05:56 1,6 C 1,1 C 92 % 1025,1 hPa 0,0 l/m 0,3 km/h (0 Bft) N-NW 342 0 min 0,0 UV-I 0 W/m 0,4 C 1,6 C 1,6 km/h (1 Bft)
01.05.2022 05:58 1,6 C 1,1 C 92 % 1025,0 hPa 0,0 l/m 0,3 km/h (0 Bft) N-NW 342 0 min 0,0 UV-I 0 W/m 0,4 C 1,6 C 1,6 km/h (1 Bft)
01.05.2022 06:00 1,5 C 1,1 C 92 % 1025,0 hPa 0,0 l/m 0,2 km/h (0 Bft) N-NW 342 0 min 0,0 UV-I 0 W/m 0,3 C 1,5 C 1,6 km/h (1 Bft)
01.05.2022 06:02 1,6 C 1,1 C 92 % 1025,1 hPa 0,0 l/m 0,0 km/h (0 Bft) N-NW 342 0 min 0,0 UV-I 0 W/m 0,4 C 1,6 C 0,0 km/h (0 Bft)
01.05.2022 06:04 1,6 C 1,1 C 92 % 1025,1 hPa 0,0 l/m 0,0 km/h (0 Bft) N-NW 342 0 min 0,0 UV-I 0 W/m 0,4 C 1,6 C 0,0 km/h (0 Bft)
01.05.2022 06:06 1,7 C 1,1 C 92 % 1025,1 hPa 0,0 l/m 0,0 km/h (0 Bft) N-NW 342 0 min 0,0 UV-I 0 W/m 0,5 C 1,7 C 0,0 km/h (0 Bft)
01.05.2022 06:08 1,8 C 1,1 C 92 % 1025,2 hPa 0,0 l/m 0,0 km/h (0 Bft) N-NW 342 0 min 0,0 UV-I 0 W/m 0,6 C 1,8 C 0,0 km/h (0 Bft)
01.05.2022 06:10 1,7 C 1,1 C 92 % 1025,0 hPa 0,0 l/m 0,0 km/h (0 Bft) N-NW 342 0 min 0,0 UV-I 0 W/m 0,5 C 1,7 C 0,0 km/h (0 Bft)
01.05.2022 06:12 1,6 C 1,1 C 92 % 1025,1 hPa 0,0 l/m 0,0 km/h (0 Bft) N-NW 342 0 min 0,0 UV-I 0 W/m 0,4 C 1,6 C 0,0 km/h (0 Bft)
01.05.2022 06:14 1,4 C 1,7 C 92 % 1025,1 hPa 0,0 l/m 0,0 km/h (0 Bft) N-NW 342 0 min 0,0 UV-I 0 W/m 0,2 C 1,4 C 0,0 km/h (0 Bft)
01.05.2022 06:16 1,5 C 1,7 C 92 % 1025,1 hPa 0,0 l/m 0,0 km/h (0 Bft) N-NW 342 0 min 0,0 UV-I 0 W/m 0,3 C 1,5 C 0,0 km/h (0 Bft)
01.05.2022 06:18 1,6 C 1,7 C 92 % 1025,1 hPa 0,0 l/m 0,0 km/h (0 Bft) N-NW 342 0 min 0,0 UV-I 0 W/m 0,4 C 1,6 C 0,0 km/h (0 Bft)
01.05.2022 06:20 1,7 C 1,7 C 92 % 1025,2 hPa 0,0 l/m 0,0 km/h (0 Bft) N-NW 342 0 min 0,0 UV-I 0 W/m 0,5 C 1,7 C 0,0 km/h (0 Bft)
01.05.2022 06:22 1,7 C 1,7 C 92 % 1025,2 hPa 0,0 l/m 0,0 km/h (0 Bft) N-NW 342 0 min 0,0 UV-I 0 W/m 0,5 C 1,7 C 0,0 km/h (0 Bft)
01.05.2022 06:24 1,7 C 1,7 C 92 % 1025,1 hPa 0,0 l/m 0,0 km/h (0 Bft) N-NW 342 0 min 0,0 UV-I 1 W/m 0,5 C 1,7 C 0,0 km/h (0 Bft)
01.05.2022 06:26 1,6 C 2,2 C 92 % 1025,1 hPa 0,0 l/m 0,0 km/h (0 Bft) N-NW 342 0 min 0,0 UV-I 5 W/m 0,4 C 1,6 C 0,0 km/h (0 Bft)
01.05.2022 06:28 1,7 C 1,7 C 92 % 1025,1 hPa 0,0 l/m 0,0 km/h (0 Bft) N-NW 342 0 min 0,0 UV-I 5 W/m 0,5 C 1,7 C 0,0 km/h (0 Bft)
01.05.2022 06:30 1,8 C 1,7 C 92 % 1025,0 hPa 0,0 l/m 0,0 km/h (0 Bft) N-NW 342 0 min 0,0 UV-I 6 W/m 0,6 C 1,8 C 0,0 km/h (0 Bft)
01.05.2022 06:32 1,9 C 1,7 C 92 % 1025,0 hPa 0,0 l/m 0,0 km/h (0 Bft) N-NW 342 0 min 0,0 UV-I 9 W/m 0,7 C 1,9 C 0,0 km/h (0 Bft)
01.05.2022 06:34 2,0 C 2,2 C 92 % 1025,0 hPa 0,0 l/m 0,0 km/h (0 Bft) N-NW 342 0 min 0,0 UV-I 11 W/m 0,8 C 2,0 C 0,0 km/h (0 Bft)
01.05.2022 06:36 2,0 C 2,2 C 92 % 1025,1 hPa 0,0 l/m 0,0 km/h (0 Bft) N-NW 342 0 min 0,0 UV-I 12 W/m 0,8 C 2,0 C 0,0 km/h (0 Bft)
01.05.2022 06:38 2,1 C 2,2 C 92 % 1025,1 hPa 0,0 l/m 0,0 km/h (0 Bft) N-NW 342 0 min 0,0 UV-I 14 W/m 0,9 C 2,1 C 0,0 km/h (0 Bft)
01.05.2022 06:40 2,2 C 2,2 C 92 % 1025,1 hPa 0,0 l/m 0,0 km/h (0 Bft) N-NW 342 0 min 0,0 UV-I 15 W/m 1,0 C 2,2 C 0,0 km/h (0 Bft)
01.05.2022 06:42 2,2 C 2,2 C 92 % 1025,1 hPa 0,0 l/m 0,0 km/h (0 Bft) N-NW 342 0 min 0,0 UV-I 17 W/m 1,0 C 2,2 C 0,0 km/h (0 Bft)
01.05.2022 06:44 2,3 C 2,2 C 92 % 1025,1 hPa 0,0 l/m 0,0 km/h (0 Bft) N-NW 342 0 min 0,0 UV-I 18 W/m 1,1 C 2,3 C 0,0 km/h (0 Bft)
01.05.2022 06:46 2,3 C 2,8 C 92 % 1025,2 hPa 0,0 l/m 0,0 km/h (0 Bft) N-NW 342 0 min 0,0 UV-I 20 W/m 1,1 C 2,3 C 0,0 km/h (0 Bft)
01.05.2022 06:48 2,3 C 2,8 C 92 % 1025,1 hPa 0,0 l/m 0,0 km/h (0 Bft) N-NW 342 0 min 0,0 UV-I 23 W/m 1,1 C 2,3 C 0,0 km/h (0 Bft)
01.05.2022 06:50 2,3 C 2,8 C 92 % 1025,0 hPa 0,0 l/m 0,0 km/h (0 Bft) N-NW 342 0 min 0,0 UV-I 26 W/m 1,1 C 2,3 C 0,0 km/h (0 Bft)
01.05.2022 06:52 2,3 C 2,8 C 92 % 1025,1 hPa 0,0 l/m 0,0 km/h (0 Bft) N-NW 342 0 min 0,0 UV-I 29 W/m 1,1 C 2,3 C 0,0 km/h (0 Bft)
01.05.2022 06:54 2,4 C 2,8 C 92 % 1025,1 hPa 0,0 l/m 0,4 km/h (0 Bft) N-NW 342 0 min 0,0 UV-I 33 W/m 1,2 C 2,4 C 1,6 km/h (1 Bft)
01.05.2022 06:56 2,6 C 2,8 C 92 % 1025,0 hPa 0,0 l/m 1,1 km/h (1 Bft) N-NW 342 0 min 0,0 UV-I 39 W/m 1,4 C 2,6 C 1,6 km/h (1 Bft)
01.05.2022 06:58 2,7 C 2,8 C 92 % 1025,2 hPa 0,0 l/m 0,6 km/h (0 Bft) N-NW 342 0 min 0,0 UV-I 44 W/m 1,5 C 2,7 C 1,6 km/h (1 Bft)
01.05.2022 07:00 2,6 C 2,8 C 92 % 1025,0 hPa 0,0 l/m 0,2 km/h (0 Bft) N-NW 342 0 min 0,0 UV-I 42 W/m 1,4 C 2,6 C 1,6 km/h (1 Bft)
01.05.2022 07:02 2,5 C 2,8 C 92 % 1025,0 hPa 0,0 l/m 0,0 km/h (0 Bft) N-NW 342 0 min 0,0 UV-I 46 W/m 1,3 C 2,5 C 1,6 km/h (1 Bft)
01.05.2022 07:04 2,4 C 2,8 C 92 % 1025,0 hPa 0,0 l/m 0,0 km/h (0 Bft) N-NW 342 0 min 0,0 UV-I 52 W/m 1,2 C 2,4 C 0,0 km/h (0 Bft)
01.05.2022 07:06 2,5 C 2,8 C 92 % 1025,0 hPa 0,0 l/m 0,0 km/h (0 Bft) N-NW 342 0 min 0,0 UV-I 61 W/m 1,3 C 2,5 C 0,0 km/h (0 Bft)
01.05.2022 07:08 2,6 C 3,3 C 92 % 1025,0 hPa 0,0 l/m 0,0 km/h (0 Bft) N-NW 342 0 min 0,0 UV-I 65 W/m 1,4 C 2,6 C 0,0 km/h (0 Bft)
01.05.2022 07:10 2,7 C 3,3 C 92 % 1025,1 hPa 0,0 l/m 0,0 km/h (0 Bft) N-NW 342 0 min 0,0 UV-I 69 W/m 1,5 C 2,7 C 0,0 km/h (0 Bft)
01.05.2022 07:12 2,7 C 3,3 C 92 % 1025,1 hPa 0,0 l/m 0,0 km/h (0 Bft) N-NW 342 0 min 0,0 UV-I 75 W/m 1,5 C 2,7 C 0,0 km/h (0 Bft)
01.05.2022 07:14 2,8 C 3,3 C 92 % 1025,1 hPa 0,0 l/m 0,0 km/h (0 Bft) N-NW 342 0 min 0,0 UV-I 80 W/m 1,6 C 2,8 C 0,0 km/h (0 Bft)
01.05.2022 07:16 2,9 C 3,9 C 92 % 1025,2 hPa 0,0 l/m 0,2 km/h (0 Bft) N-NW 342 0 min 0,0 UV-I 83 W/m 1,7 C 2,9 C 1,6 km/h (1 Bft)
01.05.2022 07:18 3,1 C 3,9 C 92 % 1025,2 hPa 0,0 l/m 0,0 km/h (0 Bft) N-NW 342 0 min 0,0 UV-I 84 W/m 1,9 C 3,1 C 0,0 km/h (0 Bft)
01.05.2022 07:20 3,3 C 3,9 C 92 % 1025,1 hPa 0,0 l/m 0,0 km/h (0 Bft) N-NW 342 0 min 0,0 UV-I 80 W/m 2,1 C 3,3 C 0,0 km/h (0 Bft)
01.05.2022 07:22 3,4 C 3,9 C 92 % 1025,1 hPa 0,0 l/m 0,0 km/h (0 Bft) N-NW 342 0 min 0,0 UV-I 77 W/m 2,2 C 3,4 C 1,6 km/h (1 Bft)
01.05.2022 07:24 3,4 C 3,9 C 92 % 1025,2 hPa 0,0 l/m 0,0 km/h (0 Bft) N-NW 342 0 min 0,0 UV-I 73 W/m 2,2 C 3,4 C 0,0 km/h (0 Bft)
01.05.2022 07:26 3,6 C 4,4 C 91 % 1025,1 hPa 0,0 l/m 0,0 km/h (0 Bft) N-NW 342 0 min 0,0 UV-I 69 W/m 2,3 C 3,6 C 0,0 km/h (0 Bft)
01.05.2022 07:28 3,6 C 4,4 C 91 % 1025,2 hPa 0,0 l/m 0,0 km/h (0 Bft) N-NW 342 0 min 0,0 UV-I 67 W/m 2,3 C 3,6 C 0,0 km/h (0 Bft)
01.05.2022 07:30 3,7 C 4,4 C 91 % 1025,2 hPa 0,0 l/m 0,0 km/h (0 Bft) N-NW 342 0 min 0,0 UV-I 69 W/m 2,4 C 3,7 C 0,0 km/h (0 Bft)
01.05.2022 07:32 3,7 C 4,4 C 91 % 1025,2 hPa 0,0 l/m 0,0 km/h (0 Bft) N-NW 342 0 min 0,0 UV-I 71 W/m 2,4 C 3,7 C 0,0 km/h (0 Bft)
01.05.2022 07:34 3,7 C 4,4 C 91 % 1025,3 hPa 0,0 l/m 0,0 km/h (0 Bft) N-NW 342 0 min 0,0 UV-I 72 W/m 2,4 C 3,7 C 0,0 km/h (0 Bft)
01.05.2022 07:36 3,6 C 3,9 C 91 % 1025,2 hPa 0,0 l/m 0,0 km/h (0 Bft) N-NW 342 0 min 0,0 UV-I 75 W/m 2,3 C 3,6 C 0,0 km/h (0 Bft)
01.05.2022 07:38 3,4 C 3,9 C 91 % 1025,2 hPa 0,0 l/m 0,0 km/h (0 Bft) N-NW 342 0 min 0,0 UV-I 82 W/m 2,1 C 3,4 C 0,0 km/h (0 Bft)
01.05.2022 07:40 3,4 C 3,9 C 91 % 1025,2 hPa 0,0 l/m 0,0 km/h (0 Bft) N-NW 342 0 min 0,0 UV-I 86 W/m 2,1 C 3,4 C 0,0 km/h (0 Bft)
01.05.2022 07:42 3,5 C 3,9 C 91 % 1025,2 hPa 0,0 l/m 0,0 km/h (0 Bft) N-NW 342 0 min 0,0 UV-I 89 W/m 2,2 C 3,5 C 0,0 km/h (0 Bft)
01.05.2022 07:44 3,6 C 4,4 C 91 % 1025,2 hPa 0,0 l/m 0,0 km/h (0 Bft) N-NW 342 0 min 0,4 UV-I 94 W/m 2,3 C 3,6 C 0,0 km/h (0 Bft)
01.05.2022 07:46 3,6 C 4,4 C 90 % 1025,3 hPa 0,0 l/m 0,0 km/h (0 Bft) N-NW 342 0 min 0,5 UV-I 101 W/m 2,1 C 3,6 C 0,0 km/h (0 Bft)
01.05.2022 07:48 3,6 C 4,4 C 90 % 1025,2 hPa 0,0 l/m 0,0 km/h (0 Bft) N-NW 342 0 min 0,5 UV-I 108 W/m 2,1 C 3,6 C 0,0 km/h (0 Bft)
01.05.2022 07:50 3,7 C 4,4 C 90 % 1025,3 hPa 0,0 l/m 0,0 km/h (0 Bft) N-NW 342 0 min 0,5 UV-I 121 W/m 2,2 C 3,7 C 0,0 km/h (0 Bft)
01.05.2022 07:52 3,8 C 5,0 C 90 % 1025,2 hPa 0,0 l/m 0,0 km/h (0 Bft) N-NW 342 0 min 0,5 UV-I 121 W/m 2,3 C 3,8 C 0,0 km/h (0 Bft)
01.05.2022 07:54 3,9 C 5,0 C 90 % 1025,3 hPa 0,0 l/m 0,0 km/h (0 Bft) N-NW 342 0 min 0,5 UV-I 102 W/m 2,4 C 3,9 C 0,0 km/h (0 Bft)
01.05.2022 07:56 4,1 C 5,0 C 90 % 1025,3 hPa 0,0 l/m 0,0 km/h (0 Bft) N-NW 342 0 min 0,6 UV-I 113 W/m 2,6 C 4,1 C 0,0 km/h (0 Bft)
01.05.2022 07:58 4,1 C 5,0 C 90 % 1025,2 hPa 0,0 l/m 0,0 km/h (0 Bft) N-NW 342 0 min 0,6 UV-I 109 W/m 2,6 C 4,1 C 0,0 km/h (0 Bft)
01.05.2022 08:00 4,3 C 5,6 C 90 % 1025,2 hPa 0,0 l/m 0,0 km/h (0 Bft) N-NW 342 0 min 0,6 UV-I 122 W/m 2,8 C 4,3 C 0,0 km/h (0 Bft)
01.05.2022 08:02 4,4 C 5,6 C 90 % 1025,3 hPa 0,0 l/m 0,0 km/h (0 Bft) N-NW 342 0 min 0,6 UV-I 139 W/m 2,9 C 4,4 C 0,0 km/h (0 Bft)
01.05.2022 08:04 4,6 C 6,1 C 90 % 1025,3 hPa 0,0 l/m 0,0 km/h (0 Bft) N-NW 342 0 min 0,7 UV-I 166 W/m 3,1 C 4,6 C 0,0 km/h (0 Bft)
01.05.2022 08:06 4,7 C 6,1 C 89 % 1025,4 hPa 0,0 l/m 0,0 km/h (0 Bft) N-NW 342 0 min 0,7 UV-I 154 W/m 3,0 C 4,7 C 0,0 km/h (0 Bft)
01.05.2022 08:08 4,8 C 6,1 C 89 % 1025,3 hPa 0,0 l/m 0,0 km/h (0 Bft) N-NW 342 0 min 0,7 UV-I 154 W/m 3,1 C 4,8 C 0,0 km/h (0 Bft)
01.05.2022 08:10 4,9 C 6,1 C 89 % 1025,3 hPa 0,0 l/m 0,1 km/h (0 Bft) N-NW 342 0 min 0,6 UV-I 138 W/m 3,2 C 4,9 C 1,6 km/h (1 Bft)
01.05.2022 08:12 4,9 C 6,1 C 89 % 1025,3 hPa 0,0 l/m 0,5 km/h (0 Bft) N-NW 342 0 min 0,6 UV-I 136 W/m 3,2 C 4,9 C 1,6 km/h (1 Bft)
01.05.2022 08:14 5,1 C 6,7 C 89 % 1025,3 hPa 0,0 l/m 0,9 km/h (0 Bft) N-NW 342 0 min 0,7 UV-I 137 W/m 3,4 C 5,1 C 1,6 km/h (1 Bft)
01.05.2022 08:16 5,2 C 6,7 C 88 % 1025,3 hPa 0,0 l/m 0,9 km/h (0 Bft) N-NW 342 0 min 0,7 UV-I 135 W/m 3,4 C 5,2 C 1,6 km/h (1 Bft)
01.05.2022 08:18 5,2 C 6,7 C 88 % 1025,3 hPa 0,0 l/m 0,8 km/h (0 Bft) N-NW 342 0 min 0,7 UV-I 138 W/m 3,4 C 5,2 C 1,6 km/h (1 Bft)
01.05.2022 08:20 5,3 C 7,2 C 88 % 1025,3 hPa 0,0 l/m 1,4 km/h (1 Bft) N-NW 342 0 min 0,7 UV-I 139 W/m 3,5 C 5,3 C 3,2 km/h (1 Bft)
01.05.2022 08:22 5,3 C 7,2 C 88 % 1025,3 hPa 0,0 l/m 0,9 km/h (0 Bft) N-NW 342 0 min 0,7 UV-I 144 W/m 3,5 C 5,3 C 1,6 km/h (1 Bft)
01.05.2022 08:24 5,3 C 7,2 C 88 % 1025,3 hPa 0,0 l/m 1,3 km/h (1 Bft) N-NW 342 0 min 0,7 UV-I 156 W/m 3,5 C 5,3 C 3,2 km/h (1 Bft)
01.05.2022 08:26 5,4 C 7,8 C 88 % 1025,3 hPa 0,0 l/m 0,3 km/h (0 Bft) N-NW 342 0 min 0,8 UV-I 173 W/m 3,6 C 5,4 C 1,6 km/h (1 Bft)
01.05.2022 08:28 5,5 C 7,2 C 87 % 1025,3 hPa 0,0 l/m 1,1 km/h (1 Bft) N-NW 342 0 min 0,8 UV-I 177 W/m 3,5 C 5,5 C 3,2 km/h (1 Bft)
01.05.2022 08:30 5,8 C 7,8 C 88 % 1025,3 hPa 0,0 l/m 0,9 km/h (0 Bft) N-NW 342 0 min 0,8 UV-I 200 W/m 4,0 C 5,8 C 1,6 km/h (1 Bft)
01.05.2022 08:32 5,9 C 8,3 C 87 % 1025,2 hPa 0,0 l/m 1,4 km/h (1 Bft) N-NW 342 0 min 1,0 UV-I 238 W/m 3,9 C 5,9 C 3,2 km/h (1 Bft)
01.05.2022 08:34 6,2 C 8,9 C 87 % 1025,2 hPa 0,0 l/m 0,8 km/h (0 Bft) N-NW 342 2 min 1,2 UV-I 392 W/m 4,2 C 6,2 C 1,6 km/h (1 Bft)
01.05.2022 08:36 6,4 C 8,9 C 87 % 1025,3 hPa 0,0 l/m 1,0 km/h (0 Bft) N-NW 342 2 min 1,2 UV-I 378 W/m 4,4 C 6,4 C 3,2 km/h (1 Bft)
01.05.2022 08:38 6,7 C 8,9 C 86 % 1025,2 hPa 0,0 l/m 3,0 km/h (1 Bft) N 5 0 min 1,1 UV-I 320 W/m 4,5 C 6,7 C 8,0 km/h (2 Bft)
01.05.2022 08:40 7,2 C 10,0 C 86 % 1025,1 hPa 0,0 l/m 5,0 km/h (1 Bft) N 5 0 min 1,1 UV-I 231 W/m 5,0 C 7,2 C 6,4 km/h (2 Bft)
01.05.2022 08:42 7,6 C 10,0 C 85 % 1025,2 hPa 0,0 l/m 6,0 km/h (2 Bft) N 5 0 min 1,0 UV-I 218 W/m 5,2 C 7,6 C 9,7 km/h (2 Bft)
01.05.2022 08:44 7,6 C 10,0 C 83 % 1025,2 hPa 0,0 l/m 4,5 km/h (1 Bft) N 5 0 min 1,0 UV-I 195 W/m 4,9 C 7,6 C 6,4 km/h (2 Bft)
01.05.2022 08:46 7,6 C 10,0 C 83 % 1025,2 hPa 0,0 l/m 5,2 km/h (1 Bft) N-NO 26 0 min 1,1 UV-I 203 W/m 4,9 C 7,6 C 8,0 km/h (2 Bft)
01.05.2022 08:48 7,7 C 10,0 C 82 % 1025,1 hPa 0,0 l/m 8,0 km/h (2 Bft) N-NO 26 0 min 1,1 UV-I 199 W/m 4,8 C 6,4 C 12,9 km/h (3 Bft)
01.05.2022 08:50 7,6 C 10,0 C 81 % 1025,1 hPa 0,0 l/m 5,8 km/h (2 Bft) N-NO 21 0 min 1,1 UV-I 207 W/m 4,6 C 7,6 C 9,7 km/h (2 Bft)
01.05.2022 08:52 7,7 C 9,4 C 81 % 1025,0 hPa 0,0 l/m 5,3 km/h (1 Bft) N-NO 24 0 min 1,2 UV-I 223 W/m 4,7 C 7,7 C 8,0 km/h (2 Bft)
01.05.2022 08:54 7,8 C 10,0 C 80 % 1025,0 hPa 0,0 l/m 5,3 km/h (1 Bft) N-NO 12 0 min 1,3 UV-I 242 W/m 4,6 C 7,8 C 8,0 km/h (2 Bft)
01.05.2022 08:56 7,9 C 10,0 C 80 % 1025,1 hPa 0,0 l/m 5,2 km/h (1 Bft) N 355 0 min 1,3 UV-I 245 W/m 4,7 C 7,9 C 8,0 km/h (2 Bft)
01.05.2022 08:58 8,2 C 10,0 C 79 % 1025,0 hPa 0,0 l/m 4,2 km/h (1 Bft) N-NW 340 2 min 1,4 UV-I 358 W/m 4,8 C 8,2 C 6,4 km/h (2 Bft)
01.05.2022 09:00 8,2 C 10,0 C 78 % 1025,1 hPa 0,0 l/m 4,0 km/h (1 Bft) N-NW 340 0 min 1,3 UV-I 245 W/m 4,6 C 8,2 C 6,4 km/h (2 Bft)
01.05.2022 09:02 8,3 C 10,0 C 78 % 1025,1 hPa 0,0 l/m 4,4 km/h (1 Bft) N-NW 341 0 min 1,4 UV-I 239 W/m 4,7 C 8,3 C 6,4 km/h (2 Bft)
01.05.2022 09:04 8,5 C 10,6 C 79 % 1025,0 hPa 0,0 l/m 3,2 km/h (1 Bft) N-NW 342 0 min 1,6 UV-I 332 W/m 5,1 C 8,5 C 4,8 km/h (1 Bft)
01.05.2022 09:06 8,6 C 10,6 C 77 % 1025,0 hPa 0,0 l/m 5,1 km/h (1 Bft) N 360 2 min 1,6 UV-I 349 W/m 4,8 C 8,6 C 6,4 km/h (2 Bft)
01.05.2022 09:08 8,7 C 10,6 C 77 % 1025,1 hPa 0,0 l/m 6,0 km/h (2 Bft) N 350 2 min 1,6 UV-I 359 W/m 4,9 C 8,7 C 8,0 km/h (2 Bft)
01.05.2022 09:10 8,9 C 10,6 C 77 % 1024,9 hPa 0,0 l/m 3,7 km/h (1 Bft) N-NO 23 2 min 1,6 UV-I 358 W/m 5,1 C 8,9 C 8,0 km/h (2 Bft)
01.05.2022 09:12 9,1 C 11,1 C 76 % 1024,9 hPa 0,0 l/m 8,2 km/h (2 Bft) N-NO 18 2 min 1,7 UV-I 368 W/m 5,1 C 7,8 C 12,9 km/h (3 Bft)
01.05.2022 09:14 9,3 C 11,1 C 74 % 1025,0 hPa 0,0 l/m 7,6 km/h (2 Bft) N-NO 25 2 min 1,7 UV-I 370 W/m 4,9 C 8,4 C 12,9 km/h (3 Bft)
01.05.2022 09:16 9,3 C 11,1 C 73 % 1024,9 hPa 0,0 l/m 7,3 km/h (2 Bft) N 355 2 min 1,8 UV-I 377 W/m 4,7 C 8,6 C 11,3 km/h (2 Bft)
01.05.2022 09:18 9,6 C 11,7 C 73 % 1025,0 hPa 0,0 l/m 9,9 km/h (2 Bft) N 355 2 min 1,7 UV-I 374 W/m 5,0 C 7,2 C 14,5 km/h (3 Bft)
01.05.2022 09:20 9,6 C 11,7 C 72 % 1024,9 hPa 0,0 l/m 8,4 km/h (2 Bft) N-NO 13 0 min 1,7 UV-I 334 W/m 4,8 C 8,2 C 14,5 km/h (3 Bft)
01.05.2022 09:22 9,6 C 11,7 C 73 % 1024,9 hPa 0,0 l/m 7,1 km/h (2 Bft) N 355 2 min 1,9 UV-I 373 W/m 5,0 C 9,1 C 12,9 km/h (3 Bft)
01.05.2022 09:24 9,7 C 11,7 C 72 % 1025,0 hPa 0,0 l/m 8,8 km/h (2 Bft) N-NO 24 2 min 1,9 UV-I 374 W/m 4,9 C 8,0 C 12,9 km/h (3 Bft)
01.05.2022 09:26 9,8 C 11,7 C 71 % 1024,9 hPa 0,0 l/m 9,5 km/h (2 Bft) N-NW 344 2 min 1,9 UV-I 368 W/m 4,8 C 7,7 C 14,5 km/h (3 Bft)
01.05.2022 09:28 9,9 C 12,2 C 71 % 1025,0 hPa 0,0 l/m 7,7 km/h (2 Bft) N-NW 342 2 min 2,0 UV-I 384 W/m 4,9 C 9,0 C 14,5 km/h (3 Bft)
01.05.2022 09:30 10,0 C 12,2 C 71 % 1025,0 hPa 0,0 l/m 9,5 km/h (2 Bft) N 11 2 min 1,9 UV-I 387 W/m 5,0 C 7,9 C 16,1 km/h (3 Bft)
01.05.2022 09:32 9,9 C 11,7 C 68 % 1025,0 hPa 0,0 l/m 11,1 km/h (2 Bft) N 350 2 min 2,0 UV-I 382 W/m 4,3 C 6,9 C 14,5 km/h (3 Bft)
01.05.2022 09:34 9,9 C 12,2 C 69 % 1025,0 hPa 0,0 l/m 10,3 km/h (2 Bft) N 11 2 min 2,1 UV-I 383 W/m 4,5 C 7,3 C 16,1 km/h (3 Bft)
01.05.2022 09:36 9,9 C 12,8 C 69 % 1025,0 hPa 0,0 l/m 9,5 km/h (2 Bft) N-NW 333 2 min 2,1 UV-I 399 W/m 4,5 C 7,8 C 12,9 km/h (3 Bft)
01.05.2022 09:38 10,1 C 12,8 C 69 % 1025,0 hPa 0,0 l/m 9,0 km/h (2 Bft) N-NW 330 2 min 2,1 UV-I 404 W/m 4,7 C 8,3 C 14,5 km/h (3 Bft)
01.05.2022 09:40 10,2 C 12,8 C 69 % 1025,0 hPa 0,0 l/m 12,9 km/h (3 Bft) N-NW 348 2 min 2,2 UV-I 399 W/m 4,8 C 6,3 C 20,9 km/h (4 Bft)
01.05.2022 09:42 10,3 C 12,8 C 69 % 1025,1 hPa 0,0 l/m 12,4 km/h (3 Bft) N 5 2 min 2,2 UV-I 403 W/m 4,9 C 6,7 C 17,7 km/h (3 Bft)
01.05.2022 09:44 10,3 C 12,8 C 67 % 1025,0 hPa 0,0 l/m 9,5 km/h (2 Bft) N 355 2 min 2,2 UV-I 414 W/m 4,4 C 8,2 C 12,9 km/h (3 Bft)
01.05.2022 09:46 10,3 C 13,3 C 67 % 1025,0 hPa 0,0 l/m 6,7 km/h (2 Bft) N 351 2 min 2,2 UV-I 420 W/m 4,4 C 10,1 C 12,9 km/h (3 Bft)
01.05.2022 09:48 10,5 C 13,3 C 69 % 1025,0 hPa 0,0 l/m 10,8 km/h (2 Bft) N 360 2 min 2,3 UV-I 448 W/m 5,1 C 7,7 C 17,7 km/h (3 Bft)
01.05.2022 09:50 10,4 C 12,8 C 67 % 1025,1 hPa 0,0 l/m 11,9 km/h (2 Bft) NO 48 2 min 1,9 UV-I 366 W/m 4,5 C 7,0 C 19,3 km/h (3 Bft)
01.05.2022 09:52 10,0 C 12,8 C 67 % 1025,1 hPa 0,0 l/m 8,0 km/h (2 Bft) N 5 0 min 1,7 UV-I 211 W/m 4,2 C 8,9 C 12,9 km/h (3 Bft)
01.05.2022 09:54 9,9 C 12,8 C 69 % 1025,0 hPa 0,0 l/m 8,5 km/h (2 Bft) N 5 0 min 2,2 UV-I 326 W/m 4,5 C 8,4 C 14,5 km/h (3 Bft)
01.05.2022 09:56 10,0 C 12,8 C 68 % 1025,1 hPa 0,0 l/m 8,4 km/h (2 Bft) N 11 2 min 2,0 UV-I 457 W/m 4,4 C 8,6 C 12,9 km/h (3 Bft)
01.05.2022 09:58 10,1 C 13,3 C 69 % 1025,1 hPa 0,0 l/m 8,4 km/h (2 Bft) NO 36 0 min 2,1 UV-I 277 W/m 4,7 C 8,7 C 16,1 km/h (3 Bft)
01.05.2022 10:00 10,0 C 13,3 C 68 % 1025,1 hPa 0,0 l/m 12,0 km/h (2 Bft) N-NO 20 0 min 1,8 UV-I 275 W/m 4,4 C 6,5 C 16,1 km/h (3 Bft)
01.05.2022 10:02 9,9 C 13,9 C 69 % 1025,1 hPa 0,0 l/m 11,6 km/h (2 Bft) N-NO 29 0 min 2,0 UV-I 281 W/m 4,5 C 6,6 C 16,1 km/h (3 Bft)
01.05.2022 10:04 9,9 C 13,9 C 68 % 1025,2 hPa 0,0 l/m 12,1 km/h (2 Bft) N 5 0 min 1,6 UV-I 280 W/m 4,3 C 6,3 C 16,1 km/h (3 Bft)
01.05.2022 10:06 9,8 C 13,9 C 70 % 1025,1 hPa 0,0 l/m 8,5 km/h (2 Bft) NO 35 0 min 1,6 UV-I 288 W/m 4,6 C 8,3 C 12,9 km/h (3 Bft)
01.05.2022 10:08 9,8 C 13,9 C 70 % 1025,1 hPa 0,0 l/m 8,0 km/h (2 Bft) N 355 0 min 1,7 UV-I 329 W/m 4,6 C 8,6 C 12,9 km/h (3 Bft)
01.05.2022 10:10 10,0 C 14,4 C 69 % 1025,2 hPa 0,0 l/m 9,3 km/h (2 Bft) N 5 2 min 2,0 UV-I 432 W/m 4,6 C 8,0 C 14,5 km/h (3 Bft)
01.05.2022 10:12 10,1 C 14,4 C 69 % 1025,1 hPa 0,0 l/m 6,6 km/h (2 Bft) N 355 2 min 1,5 UV-I 367 W/m 4,7 C 10,0 C 11,3 km/h (2 Bft)
01.05.2022 10:14 9,9 C 14,4 C 68 % 1025,2 hPa 0,0 l/m 8,1 km/h (2 Bft) N 360 0 min 1,4 UV-I 281 W/m 4,3 C 8,7 C 12,9 km/h (3 Bft)
01.05.2022 10:16 9,9 C 13,9 C 69 % 1025,1 hPa 0,0 l/m 6,4 km/h (2 Bft) N-NO 27 0 min 1,3 UV-I 275 W/m 4,5 C 9,9 C 9,7 km/h (2 Bft)
01.05.2022 10:18 9,9 C 13,9 C 69 % 1025,1 hPa 0,0 l/m 9,3 km/h (2 Bft) N 350 0 min 1,2 UV-I 254 W/m 4,5 C 7,9 C 14,5 km/h (3 Bft)
01.05.2022 10:20 9,9 C 13,9 C 68 % 1025,1 hPa 0,0 l/m 8,9 km/h (2 Bft) N 355 0 min 1,2 UV-I 268 W/m 4,3 C 8,2 C 14,5 km/h (3 Bft)
01.05.2022 10:22 9,8 C 13,3 C 68 % 1025,1 hPa 0,0 l/m 8,3 km/h (2 Bft) N 5 0 min 1,1 UV-I 215 W/m 4,2 C 8,4 C 12,9 km/h (3 Bft)
01.05.2022 10:24 9,7 C 13,3 C 69 % 1025,1 hPa 0,0 l/m 10,3 km/h (2 Bft) N-NW 345 0 min 1,0 UV-I 200 W/m 4,3 C 7,1 C 16,1 km/h (3 Bft)
01.05.2022 10:26 9,6 C 12,8 C 68 % 1025,2 hPa 0,0 l/m 10,0 km/h (2 Bft) N 350 0 min 1,0 UV-I 187 W/m 4,0 C 7,2 C 14,5 km/h (3 Bft)
01.05.2022 10:28 9,5 C 12,8 C 69 % 1025,2 hPa 0,0 l/m 11,4 km/h (2 Bft) N-NO 19 0 min 1,0 UV-I 184 W/m 4,1 C 6,3 C 14,5 km/h (3 Bft)
01.05.2022 10:30 9,3 C 12,2 C 68 % 1025,2 hPa 0,0 l/m 15,2 km/h (3 Bft) N 350 0 min 1,0 UV-I 188 W/m 3,7 C 4,2 C 17,7 km/h (3 Bft)
01.05.2022 10:32 9,3 C 11,7 C 68 % 1025,1 hPa 0,0 l/m 11,6 km/h (2 Bft) N-NW 346 0 min 1,0 UV-I 195 W/m 3,7 C 5,9 C 16,1 km/h (3 Bft)
01.05.2022 10:34 9,3 C 12,2 C 69 % 1025,0 hPa 0,0 l/m 11,4 km/h (2 Bft) N 360 0 min 1,1 UV-I 211 W/m 3,9 C 6,0 C 16,1 km/h (3 Bft)
01.05.2022 10:36 9,2 C 11,7 C 68 % 1025,0 hPa 0,0 l/m 12,3 km/h (3 Bft) N 360 0 min 1,1 UV-I 204 W/m 3,6 C 5,4 C 16,1 km/h (3 Bft)
01.05.2022 10:38 9,2 C 11,7 C 68 % 1025,1 hPa 0,0 l/m 9,5 km/h (2 Bft) N 355 0 min 1,1 UV-I 194 W/m 3,6 C 7,0 C 16,1 km/h (3 Bft)
01.05.2022 10:40 9,3 C 11,7 C 68 % 1025,1 hPa 0,0 l/m 8,5 km/h (2 Bft) N 355 0 min 1,1 UV-I 188 W/m 3,7 C 7,8 C 12,9 km/h (3 Bft)
01.05.2022 10:42 9,3 C 11,7 C 70 % 1025,1 hPa 0,0 l/m 11,9 km/h (2 Bft) N 355 0 min 1,1 UV-I 199 W/m 4,1 C 5,8 C 16,1 km/h (3 Bft)
01.05.2022 10:44 9,4 C 11,7 C 70 % 1025,1 hPa 0,0 l/m 9,1 km/h (2 Bft) N 5 0 min 1,2 UV-I 223 W/m 4,2 C 7,5 C 16,1 km/h (3 Bft)
01.05.2022 10:46 9,5 C 12,2 C 69 % 1025,1 hPa 0,0 l/m 11,4 km/h (2 Bft) N-NO 30 0 min 1,6 UV-I 273 W/m 4,1 C 6,3 C 16,1 km/h (3 Bft)
01.05.2022 10:48 9,8 C 13,3 C 70 % 1025,1 hPa 0,0 l/m 7,4 km/h (2 Bft) NO 34 2 min 1,7 UV-I 350 W/m 4,6 C 9,1 C 11,3 km/h (2 Bft)
01.05.2022 10:50 9,8 C 13,9 C 68 % 1025,1 hPa 0,0 l/m 8,5 km/h (2 Bft) N-NO 23 0 min 1,7 UV-I 332 W/m 4,2 C 8,3 C 14,5 km/h (3 Bft)
01.05.2022 10:52 9,9 C 14,4 C 69 % 1025,0 hPa 0,0 l/m 10,6 km/h (2 Bft) N 360 2 min 2,2 UV-I 408 W/m 4,5 C 7,1 C 16,1 km/h (3 Bft)
01.05.2022 10:54 10,1 C 15,0 C 69 % 1025,1 hPa 0,0 l/m 13,7 km/h (3 Bft) N-NO 15 2 min 2,2 UV-I 407 W/m 4,7 C 5,8 C 17,7 km/h (3 Bft)
01.05.2022 10:56 10,2 C 15,6 C 70 % 1025,2 hPa 0,0 l/m 14,0 km/h (3 Bft) N 5 2 min 2,3 UV-I 397 W/m 5,0 C 5,8 C 19,3 km/h (3 Bft)
01.05.2022 10:58 10,2 C 15,6 C 68 % 1025,0 hPa 0,0 l/m 12,1 km/h (2 Bft) N 5 2 min 2,5 UV-I 409 W/m 4,6 C 6,7 C 17,7 km/h (3 Bft)
01.05.2022 11:00 10,2 C 15,6 C 67 % 1025,1 hPa 0,0 l/m 8,5 km/h (2 Bft) N-NO 24 2 min 2,6 UV-I 461 W/m 4,4 C 8,7 C 16,1 km/h (3 Bft)
01.05.2022 11:02 10,3 C 15,6 C 69 % 1025,2 hPa 0,0 l/m 10,4 km/h (2 Bft) N 11 2 min 2,6 UV-I 436 W/m 4,9 C 7,7 C 16,1 km/h (3 Bft)
01.05.2022 11:04 10,5 C 16,1 C 69 % 1025,0 hPa 0,0 l/m 10,8 km/h (2 Bft) NO 34 2 min 2,8 UV-I 465 W/m 5,1 C 7,7 C 16,1 km/h (3 Bft)
01.05.2022 11:06 10,4 C 15,6 C 67 % 1025,1 hPa 0,0 l/m 13,2 km/h (3 Bft) N-NO 25 2 min 2,6 UV-I 403 W/m 4,5 C 6,4 C 19,3 km/h (3 Bft)
01.05.2022 11:08 10,5 C 16,1 C 69 % 1025,1 hPa 0,0 l/m 8,8 km/h (2 Bft) N 360 2 min 2,4 UV-I 369 W/m 5,1 C 8,9 C 14,5 km/h (3 Bft)
01.05.2022 11:10 10,4 C 15,6 C 66 % 1025,1 hPa 0,0 l/m 10,8 km/h (2 Bft) N-NO 18 2 min 2,5 UV-I 364 W/m 4,3 C 7,6 C 16,1 km/h (3 Bft)
01.05.2022 11:12 10,4 C 16,1 C 67 % 1025,1 hPa 0,0 l/m 13,5 km/h (3 Bft) N 9 2 min 2,6 UV-I 385 W/m 4,5 C 6,3 C 17,7 km/h (3 Bft)
01.05.2022 11:14 10,5 C 16,1 C 69 % 1025,1 hPa 0,0 l/m 8,7 km/h (2 Bft) N 360 2 min 2,9 UV-I 462 W/m 5,1 C 8,9 C 14,5 km/h (3 Bft)
01.05.2022 11:16 10,7 C 17,8 C 67 % 1025,0 hPa 0,0 l/m 10,5 km/h (2 Bft) N-NW 348 2 min 3,5 UV-I 492 W/m 4,8 C 8,1 C 16,1 km/h (3 Bft)
01.05.2022 11:18 10,8 C 18,3 C 66 % 1025,1 hPa 0,0 l/m 11,3 km/h (2 Bft) N 9 2 min 3,5 UV-I 544 W/m 4,7 C 7,8 C 14,5 km/h (3 Bft)
01.05.2022 11:20 10,9 C 19,4 C 66 % 1025,0 hPa 0,0 l/m 10,5 km/h (2 Bft) N 360 2 min 3,8 UV-I 651 W/m 4,8 C 8,3 C 16,1 km/h (3 Bft)
01.05.2022 11:22 10,9 C 18,9 C 66 % 1025,1 hPa 0,0 l/m 11,4 km/h (2 Bft) N-NO 18 2 min 3,4 UV-I 729 W/m 4,8 C 7,8 C 16,1 km/h (3 Bft)
01.05.2022 11:24 10,9 C 18,9 C 65 % 1025,0 hPa 0,0 l/m 11,5 km/h (2 Bft) N-NW 346 2 min 2,9 UV-I 448 W/m 4,6 C 7,8 C 17,7 km/h (3 Bft)
01.05.2022 11:26 10,8 C 17,2 C 65 % 1025,1 hPa 0,0 l/m 14,3 km/h (3 Bft) N 11 2 min 2,9 UV-I 431 W/m 4,5 C 6,4 C 17,7 km/h (3 Bft)
01.05.2022 11:28 10,7 C 16,7 C 65 % 1025,1 hPa 0,0 l/m 13,0 km/h (3 Bft) N-NO 25 2 min 3,2 UV-I 504 W/m 4,4 C 6,8 C 19,3 km/h (3 Bft)
01.05.2022 11:30 10,6 C 17,2 C 67 % 1025,1 hPa 0,0 l/m 8,1 km/h (2 Bft) N 9 2 min 3,1 UV-I 483 W/m 4,7 C 9,4 C 14,5 km/h (3 Bft)
01.05.2022 11:32 10,7 C 16,7 C 65 % 1025,1 hPa 0,0 l/m 8,9 km/h (2 Bft) N-NO 13 2 min 2,9 UV-I 416 W/m 4,4 C 9,0 C 14,5 km/h (3 Bft)
01.05.2022 11:34 10,6 C 16,1 C 64 % 1025,1 hPa 0,0 l/m 6,3 km/h (2 Bft) N 5 2 min 2,8 UV-I 412 W/m 4,1 C 10,6 C 11,3 km/h (2 Bft)
01.05.2022 11:36 10,7 C 16,1 C 67 % 1025,1 hPa 0,0 l/m 9,0 km/h (2 Bft) NW 309 2 min 2,9 UV-I 460 W/m 4,8 C 9,0 C 16,1 km/h (3 Bft)
01.05.2022 11:38 10,9 C 17,2 C 66 % 1025,1 hPa 0,0 l/m 8,0 km/h (2 Bft) N 360 2 min 3,2 UV-I 482 W/m 4,8 C 9,8 C 14,5 km/h (3 Bft)
01.05.2022 11:40 11,1 C 17,2 C 66 % 1025,1 hPa 0,0 l/m 9,2 km/h (2 Bft) N-NO 30 2 min 2,9 UV-I 452 W/m 5,0 C 9,3 C 14,5 km/h (3 Bft)
01.05.2022 11:42 10,9 C 17,2 C 63 % 1025,2 hPa 0,0 l/m 11,8 km/h (2 Bft) N 350 2 min 3,0 UV-I 459 W/m 4,1 C 7,6 C 16,1 km/h (3 Bft)
01.05.2022 11:44 10,8 C 17,2 C 62 % 1025,1 hPa 0,0 l/m 9,4 km/h (2 Bft) N-NW 329 2 min 3,6 UV-I 554 W/m 3,8 C 8,8 C 12,9 km/h (3 Bft)
01.05.2022 11:46 10,8 C 17,8 C 62 % 1025,2 hPa 0,0 l/m 8,4 km/h (2 Bft) N 355 2 min 3,1 UV-I 515 W/m 3,8 C 9,4 C 12,9 km/h (3 Bft)
01.05.2022 11:48 10,7 C 17,2 C 63 % 1025,1 hPa 0,0 l/m 8,7 km/h (2 Bft) O-NO 58 2 min 2,7 UV-I 404 W/m 3,9 C 9,1 C 14,5 km/h (3 Bft)
01.05.2022 11:50 10,6 C 15,0 C 63 % 1025,1 hPa 0,0 l/m 13,4 km/h (3 Bft) O-NO 74 2 min 2,6 UV-I 386 W/m 3,9 C 6,5 C 19,3 km/h (3 Bft)
01.05.2022 11:52 10,6 C 14,4 C 63 % 1025,1 hPa 0,0 l/m 12,6 km/h (3 Bft) NO 36 2 min 2,6 UV-I 389 W/m 3,9 C 6,9 C 17,7 km/h (3 Bft)
01.05.2022 11:54 10,6 C 15,0 C 64 % 1025,2 hPa 0,0 l/m 12,7 km/h (3 Bft) NO 36 2 min 2,7 UV-I 419 W/m 4,1 C 6,9 C 17,7 km/h (3 Bft)
01.05.2022 11:56 10,6 C 15,6 C 63 % 1025,1 hPa 0,0 l/m 5,0 km/h (1 Bft) NO 49 2 min 2,9 UV-I 478 W/m 3,9 C 10,6 C 9,7 km/h (2 Bft)
01.05.2022 11:58 10,7 C 16,1 C 63 % 1025,1 hPa 0,0 l/m 5,6 km/h (1 Bft) O-NO 65 2 min 3,1 UV-I 530 W/m 3,9 C 10,7 C 8,0 km/h (2 Bft)
01.05.2022 12:00 10,9 C 16,1 C 63 % 1025,1 hPa 0,0 l/m 10,8 km/h (2 Bft) NO 44 2 min 3,2 UV-I 508 W/m 4,1 C 8,2 C 19,3 km/h (3 Bft)
01.05.2022 12:02 11,1 C 16,7 C 62 % 1025,1 hPa 0,0 l/m 14,1 km/h (3 Bft) N-NO 22 2 min 3,2 UV-I 496 W/m 4,1 C 6,8 C 19,3 km/h (3 Bft)
01.05.2022 12:04 11,1 C 16,7 C 62 % 1025,0 hPa 0,0 l/m 12,8 km/h (3 Bft) NO 42 2 min 3,3 UV-I 516 W/m 4,1 C 7,4 C 16,1 km/h (3 Bft)
01.05.2022 12:06 11,2 C 17,8 C 63 % 1025,1 hPa 0,0 l/m 11,7 km/h (2 Bft) N-NO 22 2 min 3,6 UV-I 602 W/m 4,4 C 8,0 C 16,1 km/h (3 Bft)
01.05.2022 12:08 11,2 C 18,3 C 62 % 1025,0 hPa 0,0 l/m 10,9 km/h (2 Bft) NO 38 2 min 3,5 UV-I 572 W/m 4,2 C 8,4 C 16,1 km/h (3 Bft)
01.05.2022 12:10 11,1 C 17,2 C 62 % 1025,0 hPa 0,0 l/m 8,9 km/h (2 Bft) NO 44 2 min 3,1 UV-I 482 W/m 4,1 C 9,4 C 12,9 km/h (3 Bft)
01.05.2022 12:12 10,9 C 16,7 C 62 % 1024,9 hPa 0,0 l/m 6,0 km/h (2 Bft) O-NO 68 2 min 3,1 UV-I 463 W/m 3,9 C 10,9 C 9,7 km/h (2 Bft)
01.05.2022 12:14 10,9 C 16,7 C 62 % 1024,9 hPa 0,0 l/m 8,3 km/h (2 Bft) O-NO 63 2 min 3,1 UV-I 465 W/m 3,9 C 9,6 C 16,1 km/h (3 Bft)
01.05.2022 12:16 10,9 C 16,1 C 61 % 1024,9 hPa 0,0 l/m 9,9 km/h (2 Bft) O-NO 69 2 min 3,1 UV-I 474 W/m 3,7 C 8,6 C 14,5 km/h (3 Bft)
01.05.2022 12:18 10,8 C 15,6 C 61 % 1025,0 hPa 0,0 l/m 7,6 km/h (2 Bft) O-NO 70 2 min 2,9 UV-I 449 W/m 3,6 C 10,0 C 14,5 km/h (3 Bft)
01.05.2022 12:20 10,9 C 16,1 C 64 % 1024,9 hPa 0,0 l/m 5,9 km/h (2 Bft) N-NO 13 2 min 2,9 UV-I 485 W/m 4,4 C 10,9 C 12,9 km/h (3 Bft)
01.05.2022 12:22 11,2 C 16,1 C 62 % 1024,8 hPa 0,0 l/m 14,4 km/h (3 Bft) N 351 2 min 2,6 UV-I 425 W/m 4,2 C 6,8 C 17,7 km/h (3 Bft)
01.05.2022 12:24 11,0 C 16,1 C 62 % 1024,9 hPa 0,0 l/m 13,0 km/h (3 Bft) N-NW 345 2 min 2,5 UV-I 381 W/m 4,0 C 7,2 C 17,7 km/h (3 Bft)
01.05.2022 12:26 10,9 C 15,6 C 63 % 1024,9 hPa 0,0 l/m 11,5 km/h (2 Bft) N-NW 348 2 min 2,5 UV-I 367 W/m 4,1 C 7,8 C 16,1 km/h (3 Bft)
01.05.2022 12:28 10,9 C 15,6 C 62 % 1024,8 hPa 0,0 l/m 12,6 km/h (3 Bft) N 360 2 min 2,5 UV-I 360 W/m 3,9 C 7,3 C 16,1 km/h (3 Bft)
01.05.2022 12:30 11,1 C 16,1 C 65 % 1024,9 hPa 0,0 l/m 8,7 km/h (2 Bft) N-NO 21 2 min 2,6 UV-I 380 W/m 4,8 C 9,6 C 17,7 km/h (3 Bft)
01.05.2022 12:32 11,1 C 16,1 C 62 % 1024,8 hPa 0,0 l/m 9,4 km/h (2 Bft) N-NO 29 2 min 2,8 UV-I 410 W/m 4,1 C 9,1 C 17,7 km/h (3 Bft)
01.05.2022 12:34 11,1 C 16,1 C 62 % 1024,8 hPa 0,0 l/m 8,1 km/h (2 Bft) N 355 2 min 2,9 UV-I 411 W/m 4,1 C 9,9 C 12,9 km/h (3 Bft)
01.05.2022 12:36 11,1 C 16,1 C 64 % 1024,7 hPa 0,0 l/m 8,8 km/h (2 Bft) N-NO 25 2 min 2,9 UV-I 404 W/m 4,6 C 9,5 C 14,5 km/h (3 Bft)
01.05.2022 12:38 11,2 C 16,7 C 62 % 1024,7 hPa 0,0 l/m 9,7 km/h (2 Bft) N 5 2 min 2,8 UV-I 394 W/m 4,2 C 9,1 C 14,5 km/h (3 Bft)
01.05.2022 12:40 11,2 C 16,7 C 62 % 1024,7 hPa 0,0 l/m 10,5 km/h (2 Bft) N-NO 17 2 min 2,8 UV-I 390 W/m 4,2 C 8,7 C 16,1 km/h (3 Bft)
01.05.2022 12:42 11,2 C 16,7 C 63 % 1024,7 hPa 0,0 l/m 11,3 km/h (2 Bft) N 360 2 min 2,8 UV-I 396 W/m 4,4 C 8,2 C 16,1 km/h (3 Bft)
01.05.2022 12:44 11,1 C 16,1 C 61 % 1024,7 hPa 0,0 l/m 11,7 km/h (2 Bft) N-NO 19 2 min 2,7 UV-I 390 W/m 3,9 C 7,9 C 16,1 km/h (3 Bft)
01.05.2022 12:46 11,3 C 16,7 C 65 % 1024,7 hPa 0,0 l/m 10,8 km/h (2 Bft) N-NO 30 2 min 2,7 UV-I 391 W/m 5,0 C 8,6 C 16,1 km/h (3 Bft)
01.05.2022 12:48 11,4 C 16,7 C 64 % 1024,7 hPa 0,0 l/m 8,1 km/h (2 Bft) NO 42 2 min 2,7 UV-I 385 W/m 4,8 C 10,3 C 14,5 km/h (3 Bft)
01.05.2022 12:50 11,3 C 16,7 C 62 % 1024,7 hPa 0,0 l/m 8,7 km/h (2 Bft) N-NO 13 2 min 2,5 UV-I 370 W/m 4,3 C 9,8 C 14,5 km/h (3 Bft)
01.05.2022 12:52 11,3 C 16,7 C 64 % 1024,8 hPa 0,0 l/m 9,0 km/h (2 Bft) N 355 2 min 2,4 UV-I 356 W/m 4,7 C 9,6 C 16,1 km/h (3 Bft)
01.05.2022 12:54 11,2 C 16,1 C 63 % 1024,7 hPa 0,0 l/m 8,1 km/h (2 Bft) N 355 0 min 2,3 UV-I 341 W/m 4,4 C 10,0 C 14,5 km/h (3 Bft)
01.05.2022 12:56 11,2 C 16,1 C 64 % 1024,7 hPa 0,0 l/m 7,5 km/h (2 Bft) N 349 0 min 2,2 UV-I 329 W/m 4,6 C 10,4 C 14,5 km/h (3 Bft)
01.05.2022 12:58 11,2 C 15,6 C 64 % 1024,6 hPa 0,0 l/m 14,1 km/h (3 Bft) N-NW 347 0 min 2,2 UV-I 315 W/m 4,6 C 7,0 C 19,3 km/h (3 Bft)
01.05.2022 13:00 11,1 C 15,0 C 63 % 1024,7 hPa 0,0 l/m 13,2 km/h (3 Bft) N 351 0 min 2,1 UV-I 309 W/m 4,3 C 7,2 C 19,3 km/h (3 Bft)
01.05.2022 13:02 11,0 C 15,0 C 63 % 1024,6 hPa 0,0 l/m 9,2 km/h (2 Bft) N-NO 13 0 min 2,2 UV-I 320 W/m 4,2 C 9,2 C 14,5 km/h (3 Bft)
01.05.2022 13:04 11,1 C 15,0 C 64 % 1024,6 hPa 0,0 l/m 10,6 km/h (2 Bft) N 355 0 min 2,3 UV-I 342 W/m 4,6 C 8,5 C 14,5 km/h (3 Bft)
01.05.2022 13:06 11,1 C 15,0 C 63 % 1024,7 hPa 0,0 l/m 9,5 km/h (2 Bft) N-NO 27 2 min 2,5 UV-I 370 W/m 4,3 C 9,1 C 16,1 km/h (3 Bft)
01.05.2022 13:08 11,3 C 16,1 C 66 % 1024,6 hPa 0,0 l/m 9,2 km/h (2 Bft) N-NO 15 2 min 2,7 UV-I 394 W/m 5,2 C 9,5 C 16,1 km/h (3 Bft)
01.05.2022 13:10 11,3 C 16,1 C 64 % 1024,6 hPa 0,0 l/m 12,3 km/h (3 Bft) N-NW 337 2 min 2,6 UV-I 386 W/m 4,7 C 7,9 C 20,9 km/h (4 Bft)
01.05.2022 13:12 11,3 C 16,1 C 63 % 1024,7 hPa 0,0 l/m 10,9 km/h (2 Bft) N 355 2 min 2,6 UV-I 381 W/m 4,5 C 8,6 C 17,7 km/h (3 Bft)
01.05.2022 13:14 11,1 C 16,1 C 63 % 1024,6 hPa 0,0 l/m 8,2 km/h (2 Bft) N-NO 15 2 min 2,7 UV-I 392 W/m 4,3 C 9,9 C 12,9 km/h (3 Bft)
01.05.2022 13:16 11,2 C 16,1 C 65 % 1024,6 hPa 0,0 l/m 7,5 km/h (2 Bft) N-NO 30 2 min 2,7 UV-I 403 W/m 4,9 C 10,4 C 14,5 km/h (3 Bft)
01.05.2022 13:18 11,3 C 16,1 C 65 % 1024,5 hPa 0,0 l/m 11,0 km/h (2 Bft) N-NO 25 2 min 2,7 UV-I 405 W/m 5,0 C 8,5 C 16,1 km/h (3 Bft)
01.05.2022 13:20 11,2 C 16,1 C 63 % 1024,5 hPa 0,0 l/m 9,2 km/h (2 Bft) NO 46 2 min 2,8 UV-I 402 W/m 4,4 C 9,4 C 16,1 km/h (3 Bft)
01.05.2022 13:22 11,1 C 15,6 C 64 % 1024,5 hPa 0,0 l/m 11,5 km/h (2 Bft) N-NO 18 2 min 2,8 UV-I 400 W/m 4,6 C 8,0 C 14,5 km/h (3 Bft)
01.05.2022 13:24 11,2 C 16,1 C 67 % 1024,5 hPa 0,0 l/m 10,1 km/h (2 Bft) N 5 2 min 2,8 UV-I 403 W/m 5,3 C 8,9 C 12,9 km/h (3 Bft)
01.05.2022 13:26 11,3 C 16,1 C 66 % 1024,4 hPa 0,0 l/m 11,1 km/h (2 Bft) N 349 2 min 2,8 UV-I 392 W/m 5,2 C 8,5 C 17,7 km/h (3 Bft)
01.05.2022 13:28 11,2 C 16,1 C 65 % 1024,5 hPa 0,0 l/m 11,4 km/h (2 Bft) N 5 2 min 2,8 UV-I 395 W/m 4,9 C 8,2 C 17,7 km/h (3 Bft)
01.05.2022 13:30 11,2 C 16,1 C 64 % 1024,5 hPa 0,0 l/m 11,8 km/h (2 Bft) N 350 2 min 3,0 UV-I 422 W/m 4,6 C 8,0 C 17,7 km/h (3 Bft)
01.05.2022 13:32 11,2 C 16,1 C 65 % 1024,5 hPa 0,0 l/m 9,7 km/h (2 Bft) N-NW 341 2 min 3,1 UV-I 454 W/m 4,9 C 9,1 C 14,5 km/h (3 Bft)
01.05.2022 13:34 11,3 C 16,7 C 64 % 1024,4 hPa 0,0 l/m 8,6 km/h (2 Bft) N-NW 341 2 min 3,1 UV-I 472 W/m 4,7 C 9,8 C 12,9 km/h (3 Bft)
01.05.2022 13:36 11,4 C 16,7 C 65 % 1024,4 hPa 0,0 l/m 11,7 km/h (2 Bft) N-NW 327 2 min 3,0 UV-I 457 W/m 5,1 C 8,3 C 19,3 km/h (3 Bft)
01.05.2022 13:38 11,4 C 16,1 C 64 % 1024,4 hPa 0,0 l/m 10,2 km/h (2 Bft) N-NO 13 2 min 2,9 UV-I 427 W/m 4,8 C 9,0 C 14,5 km/h (3 Bft)
01.05.2022 13:40 11,5 C 16,7 C 66 % 1024,4 hPa 0,0 l/m 10,9 km/h (2 Bft) N-NO 19 2 min 2,7 UV-I 401 W/m 5,4 C 8,8 C 19,3 km/h (3 Bft)
01.05.2022 13:42 11,6 C 16,7 C 65 % 1024,4 hPa 0,0 l/m 12,0 km/h (2 Bft) N-NO 18 2 min 2,6 UV-I 382 W/m 5,2 C 8,4 C 17,7 km/h (3 Bft)
01.05.2022 13:44 11,5 C 16,1 C 64 % 1024,3 hPa 0,0 l/m 13,4 km/h (3 Bft) N-NW 346 2 min 2,6 UV-I 369 W/m 4,9 C 7,6 C 17,7 km/h (3 Bft)
01.05.2022 13:46 11,5 C 16,7 C 66 % 1024,3 hPa 0,0 l/m 9,2 km/h (2 Bft) N-NO 17 2 min 2,5 UV-I 355 W/m 5,4 C 9,7 C 16,1 km/h (3 Bft)
01.05.2022 13:48 11,6 C 16,7 C 65 % 1024,3 hPa 0,0 l/m 11,6 km/h (2 Bft) N 355 2 min 2,4 UV-I 347 W/m 5,2 C 8,5 C 17,7 km/h (3 Bft)
01.05.2022 13:50 11,3 C 16,1 C 65 % 1024,3 hPa 0,0 l/m 9,0 km/h (2 Bft) N 355 2 min 2,5 UV-I 356 W/m 5,0 C 9,6 C 14,5 km/h (3 Bft)
01.05.2022 13:52 11,2 C 16,1 C 63 % 1024,2 hPa 0,0 l/m 7,9 km/h (2 Bft) N 5 2 min 2,6 UV-I 371 W/m 4,4 C 10,2 C 12,9 km/h (3 Bft)
01.05.2022 13:54 11,2 C 16,1 C 65 % 1024,3 hPa 0,0 l/m 5,4 km/h (1 Bft) N-NO 19 2 min 2,7 UV-I 387 W/m 4,9 C 11,2 C 8,0 km/h (2 Bft)
01.05.2022 13:56 11,2 C 16,1 C 65 % 1024,2 hPa 0,0 l/m 10,1 km/h (2 Bft) N-NO 24 2 min 2,8 UV-I 414 W/m 4,9 C 8,9 C 16,1 km/h (3 Bft)
01.05.2022 13:58 11,2 C 16,7 C 64 % 1024,1 hPa 0,0 l/m 7,1 km/h (2 Bft) N 5 2 min 2,9 UV-I 426 W/m 4,6 C 10,7 C 14,5 km/h (3 Bft)
01.05.2022 14:00 11,3 C 17,2 C 65 % 1024,2 hPa 0,0 l/m 7,0 km/h (2 Bft) N-NO 14 2 min 3,0 UV-I 439 W/m 5,0 C 10,9 C 11,3 km/h (2 Bft)
01.05.2022 14:02 11,5 C 17,2 C 66 % 1024,2 hPa 0,0 l/m 11,0 km/h (2 Bft) N 350 2 min 3,0 UV-I 442 W/m 5,4 C 8,7 C 14,5 km/h (3 Bft)
01.05.2022 14:04 11,9 C 17,8 C 68 % 1024,1 hPa 0,0 l/m 8,9 km/h (2 Bft) N-NO 15 2 min 2,9 UV-I 427 W/m 6,2 C 10,3 C 16,1 km/h (3 Bft)
01.05.2022 14:06 11,9 C 17,8 C 66 % 1024,1 hPa 0,0 l/m 11,8 km/h (2 Bft) N-NW 338 2 min 2,6 UV-I 396 W/m 5,8 C 8,8 C 17,7 km/h (3 Bft)
01.05.2022 14:08 11,7 C 17,2 C 63 % 1024,1 hPa 0,0 l/m 11,7 km/h (2 Bft) N-NW 344 2 min 2,5 UV-I 368 W/m 4,9 C 8,6 C 16,1 km/h (3 Bft)
01.05.2022 14:10 11,6 C 17,2 C 64 % 1024,2 hPa 0,0 l/m 10,6 km/h (2 Bft) N 355 0 min 2,3 UV-I 342 W/m 5,0 C 9,0 C 14,5 km/h (3 Bft)
01.05.2022 14:12 11,6 C 16,7 C 64 % 1024,1 hPa 0,0 l/m 8,7 km/h (2 Bft) N-NW 345 0 min 2,3 UV-I 339 W/m 5,0 C 10,1 C 14,5 km/h (3 Bft)
01.05.2022 14:14 11,6 C 16,7 C 64 % 1024,0 hPa 0,0 l/m 10,9 km/h (2 Bft) N 355 2 min 2,4 UV-I 355 W/m 5,0 C 8,9 C 16,1 km/h (3 Bft)
01.05.2022 14:16 11,7 C 16,7 C 64 % 1024,1 hPa 0,0 l/m 9,2 km/h (2 Bft) N 355 2 min 2,5 UV-I 365 W/m 5,1 C 9,9 C 14,5 km/h (3 Bft)
01.05.2022 14:17 11,6 C 16,7 C 62 % 1024,0 hPa 0,0 l/m 9,7 km/h (2 Bft) N-NW 337 1 min 2,6 UV-I 383 W/m 4,6 C 9,5 C 14,5 km/h (3 Bft)
01.05.2022 14:18 11,6 C 16,7 C 63 % 1024,1 hPa 0,0 l/m 11,3 km/h (2 Bft) N 360 1 min 2,7 UV-I 392 W/m 4,8 C 8,7 C 14,5 km/h (3 Bft)
01.05.2022 14:20 11,5 C 16,7 C 65 % 1024,0 hPa 0,0 l/m 10,5 km/h (2 Bft) N 5 2 min 2,7 UV-I 391 W/m 5,2 C 9,0 C 16,1 km/h (3 Bft)
01.05.2022 14:22 11,7 C 17,2 C 66 % 1024,0 hPa 0,0 l/m 9,9 km/h (2 Bft) N 355 2 min 2,7 UV-I 408 W/m 5,6 C 9,5 C 14,5 km/h (3 Bft)
01.05.2022 14:24 11,9 C 17,8 C 66 % 1024,0 hPa 0,0 l/m 6,9 km/h (2 Bft) N 5 2 min 2,7 UV-I 406 W/m 5,8 C 11,6 C 12,9 km/h (3 Bft)
01.05.2022 14:26 12,1 C 17,8 C 65 % 1024,0 hPa 0,0 l/m 11,4 km/h (2 Bft) N 11 2 min 2,5 UV-I 372 W/m 5,7 C 9,2 C 16,1 km/h (3 Bft)
01.05.2022 14:28 11,8 C 17,8 C 63 % 1023,9 hPa 0,0 l/m 7,1 km/h (2 Bft) N-NW 340 2 min 2,4 UV-I 348 W/m 5,0 C 11,3 C 14,5 km/h (3 Bft)
01.05.2022 14:30 11,8 C 17,2 C 65 % 1024,0 hPa 0,0 l/m 5,9 km/h (2 Bft) N 5 2 min 2,4 UV-I 351 W/m 5,4 C 11,8 C 11,3 km/h (2 Bft)
01.05.2022 14:32 11,8 C 17,2 C 64 % 1023,9 hPa 0,0 l/m 5,9 km/h (2 Bft) N-NW 342 0 min 2,4 UV-I 342 W/m 5,2 C 11,8 C 9,7 km/h (2 Bft)
01.05.2022 14:34 11,7 C 16,1 C 64 % 1023,9 hPa 0,0 l/m 6,2 km/h (2 Bft) NW 325 0 min 2,3 UV-I 334 W/m 5,1 C 11,7 C 12,9 km/h (3 Bft)
01.05.2022 14:36 11,6 C 16,1 C 64 % 1023,9 hPa 0,0 l/m 9,3 km/h (2 Bft) N-NW 346 0 min 2,2 UV-I 332 W/m 5,0 C 9,8 C 14,5 km/h (3 Bft)
01.05.2022 14:38 11,6 C 16,1 C 64 % 1023,9 hPa 0,0 l/m 8,5 km/h (2 Bft) N 355 0 min 2,2 UV-I 332 W/m 5,0 C 10,2 C 12,9 km/h (3 Bft)
01.05.2022 14:40 11,4 C 16,1 C 64 % 1023,9 hPa 0,0 l/m 6,7 km/h (2 Bft) N 5 2 min 2,2 UV-I 346 W/m 4,8 C 11,2 C 8,0 km/h (2 Bft)
01.05.2022 14:42 11,4 C 16,1 C 67 % 1023,8 hPa 0,0 l/m 4,2 km/h (1 Bft) N-NO 16 2 min 2,3 UV-I 360 W/m 5,5 C 11,4 C 8,0 km/h (2 Bft)
01.05.2022 14:44 11,5 C 16,1 C 64 % 1023,8 hPa 0,0 l/m 9,8 km/h (2 Bft) N-NW 341 2 min 2,3 UV-I 353 W/m 4,9 C 9,4 C 14,5 km/h (3 Bft)
01.05.2022 14:46 11,4 C 16,1 C 65 % 1023,8 hPa 0,0 l/m 6,4 km/h (2 Bft) N-NW 338 2 min 2,3 UV-I 357 W/m 5,1 C 11,4 C 12,9 km/h (3 Bft)
01.05.2022 14:48 11,6 C 16,7 C 64 % 1023,7 hPa 0,0 l/m 4,1 km/h (1 Bft) N-NW 348 2 min 2,3 UV-I 352 W/m 5,0 C 11,6 C 6,4 km/h (2 Bft)
01.05.2022 14:50 11,7 C 16,1 C 64 % 1023,7 hPa 0,0 l/m 7,4 km/h (2 Bft) NO 40 0 min 2,2 UV-I 323 W/m 5,1 C 11,0 C 12,9 km/h (3 Bft)
01.05.2022 14:52 11,7 C 16,1 C 64 % 1023,7 hPa 0,0 l/m 4,4 km/h (1 Bft) NO 44 0 min 2,0 UV-I 306 W/m 5,1 C 11,7 C 6,4 km/h (2 Bft)
01.05.2022 14:54 11,7 C 16,1 C 64 % 1023,7 hPa 0,0 l/m 6,6 km/h (2 Bft) N-NO 31 0 min 2,0 UV-I 306 W/m 5,1 C 11,6 C 12,9 km/h (3 Bft)
01.05.2022 14:56 11,8 C 16,1 C 64 % 1023,7 hPa 0,0 l/m 8,0 km/h (2 Bft) NO 50 0 min 2,1 UV-I 307 W/m 5,2 C 10,7 C 12,9 km/h (3 Bft)
01.05.2022 14:58 11,7 C 15,6 C 63 % 1023,7 hPa 0,0 l/m 7,1 km/h (2 Bft) O-NO 69 0 min 2,0 UV-I 302 W/m 4,9 C 11,2 C 9,7 km/h (2 Bft)
01.05.2022 15:00 11,9 C 15,6 C 64 % 1023,8 hPa 0,0 l/m 5,7 km/h (1 Bft) O-NO 74 0 min 2,0 UV-I 300 W/m 5,3 C 11,9 C 8,0 km/h (2 Bft)
01.05.2022 15:02 11,8 C 15,6 C 63 % 1023,8 hPa 0,0 l/m 9,0 km/h (2 Bft) N 5 0 min 2,0 UV-I 303 W/m 5,0 C 10,1 C 17,7 km/h (3 Bft)
01.05.2022 15:04 11,8 C 15,0 C 64 % 1023,7 hPa 0,0 l/m 14,6 km/h (3 Bft) N-NO 21 0 min 2,1 UV-I 307 W/m 5,2 C 7,5 C 20,9 km/h (4 Bft)
01.05.2022 15:06 11,7 C 15,0 C 65 % 1023,7 hPa 0,0 l/m 14,8 km/h (3 Bft) N 11 0 min 2,0 UV-I 300 W/m 5,3 C 7,3 C 19,3 km/h (3 Bft)
01.05.2022 15:08 11,7 C 15,0 C 66 % 1023,7 hPa 0,0 l/m 11,0 km/h (2 Bft) N-NO 30 0 min 2,0 UV-I 294 W/m 5,6 C 9,0 C 16,1 km/h (3 Bft)
01.05.2022 15:10 11,7 C 15,0 C 67 % 1023,7 hPa 0,0 l/m 11,4 km/h (2 Bft) N 350 0 min 1,9 UV-I 290 W/m 5,8 C 8,8 C 16,1 km/h (3 Bft)
01.05.2022 15:12 11,7 C 15,6 C 65 % 1023,6 hPa 0,0 l/m 11,5 km/h (2 Bft) N 355 0 min 2,0 UV-I 294 W/m 5,3 C 8,7 C 16,1 km/h (3 Bft)
01.05.2022 15:14 11,6 C 15,6 C 65 % 1023,6 hPa 0,0 l/m 10,4 km/h (2 Bft) N-NO 28 0 min 2,0 UV-I 298 W/m 5,2 C 9,1 C 16,1 km/h (3 Bft)
01.05.2022 15:16 11,5 C 15,0 C 65 % 1023,5 hPa 0,0 l/m 14,7 km/h (3 Bft) N-NO 16 0 min 2,0 UV-I 302 W/m 5,2 C 7,1 C 20,9 km/h (4 Bft)
01.05.2022 15:18 11,5 C 15,0 C 67 % 1023,6 hPa 0,0 l/m 12,6 km/h (3 Bft) N 10 0 min 2,0 UV-I 303 W/m 5,6 C 8,0 C 19,3 km/h (3 Bft)
01.05.2022 15:20 11,4 C 15,0 C 66 % 1023,4 hPa 0,0 l/m 17,9 km/h (3 Bft) N-NW 346 0 min 2,0 UV-I 301 W/m 5,3 C 5,8 C 24,1 km/h (4 Bft)
01.05.2022 15:22 11,4 C 14,4 C 67 % 1023,4 hPa 0,0 l/m 11,6 km/h (2 Bft) N-NW 343 0 min 1,9 UV-I 294 W/m 5,5 C 8,3 C 16,1 km/h (3 Bft)
01.05.2022 15:24 11,4 C 15,0 C 68 % 1023,4 hPa 0,0 l/m 10,3 km/h (2 Bft) N 5 0 min 1,9 UV-I 280 W/m 5,7 C 9,0 C 16,1 km/h (3 Bft)
01.05.2022 15:26 11,6 C 15,0 C 69 % 1023,4 hPa 0,0 l/m 8,2 km/h (2 Bft) N 11 0 min 1,7 UV-I 263 W/m 6,1 C 10,4 C 12,9 km/h (3 Bft)
01.05.2022 15:28 11,6 C 15,0 C 67 % 1023,4 hPa 0,0 l/m 10,4 km/h (2 Bft) NO 37 0 min 1,6 UV-I 251 W/m 5,7 C 9,1 C 16,1 km/h (3 Bft)
01.05.2022 15:30 11,4 C 14,4 C 66 % 1023,4 hPa 0,0 l/m 10,3 km/h (2 Bft) NO 48 0 min 1,7 UV-I 258 W/m 5,3 C 9,0 C 16,1 km/h (3 Bft)
01.05.2022 15:32 11,4 C 14,4 C 66 % 1023,3 hPa 0,0 l/m 8,6 km/h (2 Bft) N 9 0 min 1,8 UV-I 271 W/m 5,3 C 9,9 C 14,5 km/h (3 Bft)
01.05.2022 15:34 11,3 C 13,9 C 66 % 1023,3 hPa 0,0 l/m 8,9 km/h (2 Bft) N-NW 346 0 min 1,8 UV-I 278 W/m 5,2 C 9,7 C 16,1 km/h (3 Bft)
01.05.2022 15:36 11,4 C 14,4 C 68 % 1023,2 hPa 0,0 l/m 8,1 km/h (2 Bft) N-NO 25 0 min 1,8 UV-I 270 W/m 5,7 C 10,3 C 12,9 km/h (3 Bft)
01.05.2022 15:38 11,4 C 14,4 C 67 % 1023,4 hPa 0,0 l/m 9,1 km/h (2 Bft) N 5 0 min 1,8 UV-I 265 W/m 5,5 C 9,6 C 17,7 km/h (3 Bft)
01.05.2022 15:40 11,4 C 15,0 C 67 % 1023,3 hPa 0,0 l/m 11,3 km/h (2 Bft) N 355 0 min 1,8 UV-I 273 W/m 5,5 C 8,5 C 16,1 km/h (3 Bft)
01.05.2022 15:42 11,4 C 15,0 C 67 % 1023,3 hPa 0,0 l/m 9,2 km/h (2 Bft) N-NO 18 0 min 1,8 UV-I 280 W/m 5,5 C 9,6 C 14,5 km/h (3 Bft)
01.05.2022 15:44 11,6 C 15,0 C 67 % 1023,3 hPa 0,0 l/m 8,1 km/h (2 Bft) N-NO 31 0 min 1,8 UV-I 280 W/m 5,7 C 10,5 C 12,9 km/h (3 Bft)
01.05.2022 15:46 11,6 C 15,0 C 66 % 1023,3 hPa 0,0 l/m 3,9 km/h (1 Bft) N-NO 32 0 min 1,7 UV-I 278 W/m 5,5 C 11,6 C 6,4 km/h (2 Bft)
01.05.2022 15:48 11,7 C 15,0 C 67 % 1023,2 hPa 0,0 l/m 6,8 km/h (2 Bft) N 5 0 min 1,7 UV-I 278 W/m 5,8 C 11,4 C 12,9 km/h (3 Bft)
01.05.2022 15:50 11,7 C 15,0 C 65 % 1023,2 hPa 0,0 l/m 8,5 km/h (2 Bft) N 355 0 min 1,8 UV-I 286 W/m 5,3 C 10,3 C 14,5 km/h (3 Bft)
01.05.2022 15:52 11,6 C 15,6 C 65 % 1023,2 hPa 0,0 l/m 10,5 km/h (2 Bft) N-NW 348 0 min 1,9 UV-I 301 W/m 5,2 C 9,1 C 14,5 km/h (3 Bft)
01.05.2022 15:54 11,6 C 15,6 C 65 % 1023,3 hPa 0,0 l/m 8,3 km/h (2 Bft) N-NW 348 0 min 1,9 UV-I 309 W/m 5,2 C 10,3 C 14,5 km/h (3 Bft)
01.05.2022 15:56 11,6 C 15,0 C 65 % 1023,2 hPa 0,0 l/m 4,5 km/h (1 Bft) N-NW 334 0 min 1,9 UV-I 300 W/m 5,2 C 11,6 C 8,0 km/h (2 Bft)
01.05.2022 15:58 11,7 C 15,0 C 67 % 1023,2 hPa 0,0 l/m 3,8 km/h (1 Bft) N 10 0 min 1,7 UV-I 280 W/m 5,8 C 11,7 C 8,0 km/h (2 Bft)
01.05.2022 16:00 11,8 C 15,6 C 68 % 1023,2 hPa 0,0 l/m 6,1 km/h (2 Bft) N 355 0 min 1,6 UV-I 258 W/m 6,1 C 11,8 C 8,0 km/h (2 Bft)
01.05.2022 16:02 11,9 C 15,6 C 67 % 1023,2 hPa 0,0 l/m 7,0 km/h (2 Bft) N-NO 22 0 min 1,5 UV-I 243 W/m 6,0 C 11,5 C 14,5 km/h (3 Bft)
01.05.2022 16:04 11,9 C 15,6 C 66 % 1023,3 hPa 0,0 l/m 8,8 km/h (2 Bft) N 5 0 min 1,5 UV-I 242 W/m 5,8 C 10,4 C 14,5 km/h (3 Bft)
01.05.2022 16:06 11,8 C 15,6 C 65 % 1023,1 hPa 0,0 l/m 5,5 km/h (1 Bft) N 355 0 min 1,5 UV-I 242 W/m 5,4 C 11,8 C 6,4 km/h (2 Bft)
01.05.2022 16:08 11,8 C 15,6 C 67 % 1023,1 hPa 0,0 l/m 8,8 km/h (2 Bft) N-NW 346 0 min 1,5 UV-I 238 W/m 5,9 C 10,3 C 17,7 km/h (3 Bft)
01.05.2022 16:10 11,7 C 15,0 C 67 % 1023,1 hPa 0,0 l/m 14,2 km/h (3 Bft) N-NO 26 0 min 1,5 UV-I 240 W/m 5,8 C 7,5 C 20,9 km/h (4 Bft)
01.05.2022 16:12 11,7 C 15,0 C 67 % 1023,1 hPa 0,0 l/m 11,7 km/h (2 Bft) N-NO 22 0 min 1,5 UV-I 249 W/m 5,8 C 8,6 C 19,3 km/h (3 Bft)
01.05.2022 16:14 11,7 C 15,0 C 67 % 1023,0 hPa 0,0 l/m 10,1 km/h (2 Bft) N 11 0 min 1,5 UV-I 259 W/m 5,8 C 9,4 C 16,1 km/h (3 Bft)
01.05.2022 16:16 11,6 C 15,6 C 66 % 1023,0 hPa 0,0 l/m 6,4 km/h (2 Bft) N-NO 15 0 min 1,7 UV-I 277 W/m 5,5 C 11,6 C 11,3 km/h (2 Bft)
01.05.2022 16:18 11,7 C 15,6 C 68 % 1023,0 hPa 0,0 l/m 6,9 km/h (2 Bft) N-NO 13 0 min 1,8 UV-I 297 W/m 6,0 C 11,4 C 11,3 km/h (2 Bft)
01.05.2022 16:20 11,8 C 16,1 C 68 % 1023,0 hPa 0,0 l/m 8,8 km/h (2 Bft) N 5 0 min 1,8 UV-I 304 W/m 6,1 C 10,3 C 16,1 km/h (3 Bft)
01.05.2022 16:22 11,8 C 16,1 C 66 % 1023,0 hPa 0,0 l/m 11,0 km/h (2 Bft) N-NO 32 0 min 1,8 UV-I 308 W/m 5,7 C 9,1 C 16,1 km/h (3 Bft)
01.05.2022 16:24 11,8 C 16,1 C 68 % 1023,0 hPa 0,0 l/m 8,3 km/h (2 Bft) N 355 0 min 1,8 UV-I 306 W/m 6,1 C 10,6 C 14,5 km/h (3 Bft)
01.05.2022 16:26 11,8 C 16,1 C 65 % 1023,0 hPa 0,0 l/m 11,1 km/h (2 Bft) N-NO 15 0 min 1,8 UV-I 298 W/m 5,4 C 9,0 C 17,7 km/h (3 Bft)
01.05.2022 16:28 11,8 C 15,6 C 67 % 1023,0 hPa 0,0 l/m 11,3 km/h (2 Bft) N 5 0 min 1,8 UV-I 296 W/m 5,9 C 8,9 C 16,1 km/h (3 Bft)
01.05.2022 16:30 11,8 C 15,6 C 66 % 1023,1 hPa 0,0 l/m 9,7 km/h (2 Bft) N 350 0 min 1,8 UV-I 293 W/m 5,7 C 9,7 C 16,1 km/h (3 Bft)
01.05.2022 16:32 11,8 C 15,6 C 68 % 1022,9 hPa 0,0 l/m 8,6 km/h (2 Bft) N 350 0 min 1,8 UV-I 292 W/m 6,1 C 10,4 C 12,9 km/h (3 Bft)
01.05.2022 16:34 11,8 C 15,6 C 67 % 1023,0 hPa 0,0 l/m 11,4 km/h (2 Bft) N 5 0 min 1,8 UV-I 294 W/m 5,9 C 8,9 C 17,7 km/h (3 Bft)
01.05.2022 16:36 11,8 C 15,6 C 67 % 1022,9 hPa 0,0 l/m 14,4 km/h (3 Bft) N 11 0 min 1,8 UV-I 294 W/m 5,9 C 7,6 C 20,9 km/h (4 Bft)
01.05.2022 16:38 11,7 C 15,6 C 66 % 1022,9 hPa 0,0 l/m 14,8 km/h (3 Bft) N 355 0 min 1,8 UV-I 293 W/m 5,6 C 7,3 C 22,5 km/h (4 Bft)
01.05.2022 16:40 11,6 C 15,0 C 67 % 1023,0 hPa 0,0 l/m 15,5 km/h (3 Bft) N 360 0 min 1,7 UV-I 281 W/m 5,7 C 6,9 C 20,9 km/h (4 Bft)
01.05.2022 16:42 11,6 C 15,0 C 66 % 1023,0 hPa 0,0 l/m 11,8 km/h (2 Bft) N-NW 348 0 min 1,6 UV-I 272 W/m 5,5 C 8,5 C 17,7 km/h (3 Bft)
01.05.2022 16:44 11,4 C 15,0 C 66 % 1023,0 hPa 0,0 l/m 10,8 km/h (2 Bft) N-NW 348 0 min 1,6 UV-I 280 W/m 5,3 C 8,7 C 16,1 km/h (3 Bft)
01.05.2022 16:46 11,6 C 15,0 C 66 % 1022,9 hPa 0,0 l/m 13,0 km/h (3 Bft) N-NW 347 0 min 1,7 UV-I 301 W/m 5,5 C 7,9 C 16,1 km/h (3 Bft)
01.05.2022 16:48 11,7 C 15,6 C 66 % 1022,9 hPa 0,0 l/m 11,8 km/h (2 Bft) N-NO 17 0 min 1,8 UV-I 333 W/m 5,6 C 8,6 C 16,1 km/h (3 Bft)
01.05.2022 16:50 11,7 C 16,1 C 66 % 1022,9 hPa 0,0 l/m 13,6 km/h (3 Bft) N-NW 341 0 min 1,9 UV-I 341 W/m 5,6 C 7,8 C 17,7 km/h (3 Bft)
01.05.2022 16:52 11,7 C 16,1 C 66 % 1023,0 hPa 0,0 l/m 10,0 km/h (2 Bft) N 5 2 min 2,0 UV-I 424 W/m 5,6 C 9,5 C 16,1 km/h (3 Bft)
01.05.2022 16:54 11,8 C 16,1 C 66 % 1023,0 hPa 0,0 l/m 9,2 km/h (2 Bft) N 349 2 min 2,0 UV-I 352 W/m 5,7 C 10,0 C 12,9 km/h (3 Bft)
01.05.2022 16:56 11,9 C 15,6 C 67 % 1022,9 hPa 0,0 l/m 6,9 km/h (2 Bft) N-NW 348 0 min 1,7 UV-I 297 W/m 6,0 C 11,6 C 9,7 km/h (2 Bft)
01.05.2022 16:58 11,9 C 15,6 C 67 % 1022,9 hPa 0,0 l/m 5,6 km/h (1 Bft) N-NW 348 0 min 1,6 UV-I 269 W/m 6,0 C 11,9 C 9,7 km/h (2 Bft)
01.05.2022 17:00 11,9 C 15,6 C 67 % 1023,0 hPa 0,0 l/m 4,8 km/h (1 Bft) N-NO 12 0 min 1,5 UV-I 253 W/m 6,0 C 11,9 C 11,3 km/h (2 Bft)
01.05.2022 17:02 11,9 C 15,6 C 67 % 1023,0 hPa 0,0 l/m 8,3 km/h (2 Bft) N-NO 19 0 min 1,5 UV-I 244 W/m 6,0 C 10,7 C 14,5 km/h (3 Bft)
01.05.2022 17:04 11,8 C 15,6 C 67 % 1023,0 hPa 0,0 l/m 7,4 km/h (2 Bft) N-NO 32 0 min 1,4 UV-I 244 W/m 5,9 C 11,1 C 12,9 km/h (3 Bft)
01.05.2022 17:06 11,8 C 15,0 C 66 % 1023,0 hPa 0,0 l/m 10,1 km/h (2 Bft) N 355 0 min 1,4 UV-I 238 W/m 5,7 C 9,5 C 16,1 km/h (3 Bft)
01.05.2022 17:08 11,7 C 14,4 C 66 % 1023,1 hPa 0,0 l/m 8,2 km/h (2 Bft) N 350 0 min 1,3 UV-I 219 W/m 5,6 C 10,5 C 12,9 km/h (3 Bft)
01.05.2022 17:10 11,7 C 14,4 C 68 % 1023,1 hPa 0,0 l/m 8,7 km/h (2 Bft) N 349 0 min 1,1 UV-I 195 W/m 6,0 C 10,2 C 14,5 km/h (3 Bft)
01.05.2022 17:12 11,6 C 13,9 C 65 % 1023,0 hPa 0,0 l/m 10,9 km/h (2 Bft) N 351 0 min 1,0 UV-I 176 W/m 5,2 C 8,9 C 16,1 km/h (3 Bft)
01.05.2022 17:14 11,6 C 13,9 C 66 % 1023,0 hPa 0,0 l/m 11,4 km/h (2 Bft) N-NO 14 0 min 1,0 UV-I 166 W/m 5,5 C 8,6 C 16,1 km/h (3 Bft)
01.05.2022 17:16 11,6 C 13,9 C 68 % 1023,0 hPa 0,0 l/m 7,3 km/h (2 Bft) N-NO 28 0 min 1,0 UV-I 164 W/m 5,9 C 11,0 C 14,5 km/h (3 Bft)
01.05.2022 17:18 11,6 C 13,9 C 67 % 1023,0 hPa 0,0 l/m 9,1 km/h (2 Bft) N-NO 29 0 min 0,9 UV-I 159 W/m 5,7 C 9,9 C 12,9 km/h (3 Bft)
01.05.2022 17:20 11,5 C 13,9 C 67 % 1023,0 hPa 0,0 l/m 6,5 km/h (2 Bft) N-NO 28 0 min 0,9 UV-I 159 W/m 5,6 C 11,5 C 9,7 km/h (2 Bft)
01.05.2022 17:22 11,4 C 13,9 C 67 % 1022,9 hPa 0,0 l/m 10,3 km/h (2 Bft) N-NO 22 0 min 0,9 UV-I 162 W/m 5,5 C 9,0 C 14,5 km/h (3 Bft)
01.05.2022 17:24 11,4 C 13,9 C 68 % 1023,0 hPa 0,0 l/m 8,0 km/h (2 Bft) N 351 0 min 0,9 UV-I 161 W/m 5,7 C 10,3 C 16,1 km/h (3 Bft)
01.05.2022 17:26 11,4 C 13,3 C 68 % 1023,0 hPa 0,0 l/m 9,8 km/h (2 Bft) N 9 0 min 0,9 UV-I 157 W/m 5,7 C 9,3 C 16,1 km/h (3 Bft)
01.05.2022 17:28 11,4 C 13,3 C 69 % 1023,0 hPa 0,0 l/m 6,8 km/h (2 Bft) N 5 0 min 0,9 UV-I 159 W/m 5,9 C 11,1 C 12,9 km/h (3 Bft)
01.05.2022 17:30 11,4 C 13,3 C 68 % 1023,0 hPa 0,0 l/m 13,0 km/h (3 Bft) N 360 0 min 0,9 UV-I 169 W/m 5,7 C 7,7 C 17,7 km/h (3 Bft)
01.05.2022 17:32 11,4 C 13,9 C 69 % 1022,9 hPa 0,0 l/m 10,6 km/h (2 Bft) N-NO 24 0 min 1,0 UV-I 187 W/m 5,9 C 8,8 C 16,1 km/h (3 Bft)
01.05.2022 17:34 11,4 C 13,9 C 68 % 1022,9 hPa 0,0 l/m 10,8 km/h (2 Bft) N 5 0 min 1,1 UV-I 214 W/m 5,7 C 8,7 C 16,1 km/h (3 Bft)
01.05.2022 17:36 11,5 C 15,0 C 68 % 1022,9 hPa 0,0 l/m 9,5 km/h (2 Bft) N-NO 24 0 min 1,2 UV-I 278 W/m 5,8 C 9,5 C 12,9 km/h (3 Bft)
01.05.2022 17:38 11,6 C 15,6 C 68 % 1022,9 hPa 0,0 l/m 11,6 km/h (2 Bft) N 5 0 min 1,3 UV-I 297 W/m 5,9 C 8,5 C 20,9 km/h (4 Bft)
01.05.2022 17:40 11,7 C 16,1 C 68 % 1022,9 hPa 0,0 l/m 9,1 km/h (2 Bft) N-NO 15 0 min 1,4 UV-I 299 W/m 6,0 C 10,0 C 14,5 km/h (3 Bft)
01.05.2022 17:42 11,7 C 16,7 C 68 % 1022,8 hPa 0,0 l/m 11,0 km/h (2 Bft) N-NO 13 0 min 1,4 UV-I 340 W/m 6,0 C 9,0 C 14,5 km/h (3 Bft)
01.05.2022 17:44 11,8 C 17,2 C 67 % 1022,9 hPa 0,0 l/m 11,5 km/h (2 Bft) N-NO 26 0 min 1,5 UV-I 338 W/m 5,9 C 8,8 C 16,1 km/h (3 Bft)
01.05.2022 17:46 11,7 C 16,7 C 67 % 1022,8 hPa 0,0 l/m 13,8 km/h (3 Bft) N-NO 28 0 min 1,5 UV-I 322 W/m 5,8 C 7,7 C 20,9 km/h (4 Bft)
01.05.2022 17:48 11,8 C 17,2 C 68 % 1022,9 hPa 0,0 l/m 9,7 km/h (2 Bft) N 11 2 min 1,6 UV-I 359 W/m 6,1 C 9,7 C 16,1 km/h (3 Bft)
01.05.2022 17:50 11,8 C 17,2 C 67 % 1022,9 hPa 0,0 l/m 13,4 km/h (3 Bft) N-NO 24 0 min 1,5 UV-I 331 W/m 5,9 C 8,0 C 20,9 km/h (4 Bft)
01.05.2022 17:52 11,8 C 17,2 C 67 % 1022,9 hPa 0,0 l/m 13,6 km/h (3 Bft) N-NO 15 0 min 1,5 UV-I 327 W/m 5,9 C 7,9 C 17,7 km/h (3 Bft)
01.05.2022 17:54 11,7 C 16,7 C 67 % 1022,9 hPa 0,0 l/m 12,5 km/h (3 Bft) N-NO 19 0 min 1,4 UV-I 321 W/m 5,8 C 8,2 C 19,3 km/h (3 Bft)
01.05.2022 17:56 11,7 C 16,7 C 67 % 1022,9 hPa 0,0 l/m 11,6 km/h (2 Bft) N 5 0 min 1,4 UV-I 296 W/m 5,8 C 8,7 C 16,1 km/h (3 Bft)
01.05.2022 17:58 11,6 C 15,6 C 66 % 1022,9 hPa 0,0 l/m 15,8 km/h (3 Bft) N 5 0 min 1,3 UV-I 273 W/m 5,5 C 6,8 C 22,5 km/h (4 Bft)
01.05.2022 18:00 11,4 C 14,4 C 66 % 1022,8 hPa 0,0 l/m 16,1 km/h (3 Bft) N 360 0 min 1,2 UV-I 246 W/m 5,3 C 6,4 C 19,3 km/h (3 Bft)
01.05.2022 18:02 11,3 C 14,4 C 67 % 1022,9 hPa 0,0 l/m 14,2 km/h (3 Bft) N 355 0 min 1,2 UV-I 237 W/m 5,4 C 7,0 C 19,3 km/h (3 Bft)
01.05.2022 18:04 11,2 C 14,4 C 68 % 1022,9 hPa 0,0 l/m 10,2 km/h (2 Bft) N 9 0 min 1,2 UV-I 236 W/m 5,5 C 8,8 C 16,1 km/h (3 Bft)
01.05.2022 18:06 11,2 C 13,9 C 67 % 1022,8 hPa 0,0 l/m 14,0 km/h (3 Bft) N-NW 344 0 min 1,2 UV-I 256 W/m 5,3 C 7,0 C 22,5 km/h (4 Bft)
01.05.2022 18:08 11,2 C 14,4 C 67 % 1022,9 hPa 0,0 l/m 14,2 km/h (3 Bft) N-NW 344 0 min 1,2 UV-I 278 W/m 5,3 C 6,9 C 19,3 km/h (3 Bft)
01.05.2022 18:10 11,2 C 14,4 C 67 % 1022,9 hPa 0,0 l/m 12,0 km/h (2 Bft) N-NO 15 0 min 1,2 UV-I 277 W/m 5,3 C 7,9 C 17,7 km/h (3 Bft)
01.05.2022 18:12 11,2 C 14,4 C 67 % 1022,9 hPa 0,0 l/m 13,6 km/h (3 Bft) N-NW 343 0 min 1,2 UV-I 265 W/m 5,3 C 7,2 C 17,7 km/h (3 Bft)
01.05.2022 18:14 11,2 C 14,4 C 67 % 1022,9 hPa 0,0 l/m 12,8 km/h (3 Bft) N 355 0 min 1,2 UV-I 270 W/m 5,3 C 7,5 C 19,3 km/h (3 Bft)
01.05.2022 18:16 11,2 C 14,4 C 68 % 1022,9 hPa 0,0 l/m 9,4 km/h (2 Bft) N 11 0 min 1,2 UV-I 270 W/m 5,5 C 9,3 C 17,7 km/h (3 Bft)
01.05.2022 18:18 11,3 C 15,0 C 69 % 1022,9 hPa 0,0 l/m 11,9 km/h (2 Bft) N 10 0 min 1,1 UV-I 267 W/m 5,8 C 8,1 C 17,7 km/h (3 Bft)
01.05.2022 18:20 11,2 C 14,4 C 67 % 1022,8 hPa 0,0 l/m 14,2 km/h (3 Bft) N 360 0 min 1,1 UV-I 270 W/m 5,3 C 6,9 C 19,3 km/h (3 Bft)
01.05.2022 18:22 11,2 C 14,4 C 67 % 1022,8 hPa 0,0 l/m 14,7 km/h (3 Bft) N-NO 25 0 min 1,2 UV-I 307 W/m 5,3 C 6,7 C 17,7 km/h (3 Bft)
01.05.2022 18:24 11,3 C 15,6 C 68 % 1022,8 hPa 0,0 l/m 10,3 km/h (2 Bft) N 355 2 min 1,3 UV-I 345 W/m 5,6 C 8,9 C 16,1 km/h (3 Bft)
01.05.2022 18:26 11,5 C 16,1 C 67 % 1022,9 hPa 0,0 l/m 15,2 km/h (3 Bft) N 5 0 min 1,2 UV-I 326 W/m 5,6 C 6,9 C 20,9 km/h (4 Bft)
01.05.2022 18:28 11,4 C 15,6 C 67 % 1022,8 hPa 0,0 l/m 12,9 km/h (3 Bft) N 10 0 min 1,2 UV-I 317 W/m 5,5 C 7,7 C 17,7 km/h (3 Bft)
01.05.2022 18:30 11,4 C 16,1 C 67 % 1022,8 hPa 0,0 l/m 12,8 km/h (3 Bft) N 351 0 min 1,2 UV-I 309 W/m 5,5 C 7,8 C 17,7 km/h (3 Bft)
01.05.2022 18:32 11,4 C 15,6 C 67 % 1022,8 hPa 0,0 l/m 12,7 km/h (3 Bft) N-NO 19 0 min 1,2 UV-I 317 W/m 5,5 C 7,8 C 17,7 km/h (3 Bft)
01.05.2022 18:34 11,5 C 16,7 C 68 % 1022,7 hPa 0,0 l/m 13,3 km/h (3 Bft) N-NW 336 2 min 1,2 UV-I 378 W/m 5,8 C 7,7 C 17,7 km/h (3 Bft)
01.05.2022 18:36 11,5 C 17,2 C 66 % 1022,7 hPa 0,0 l/m 14,0 km/h (3 Bft) N-NW 345 2 min 1,2 UV-I 371 W/m 5,4 C 7,4 C 19,3 km/h (3 Bft)
01.05.2022 18:38 11,4 C 17,2 C 66 % 1022,7 hPa 0,0 l/m 12,9 km/h (3 Bft) N 5 2 min 1,2 UV-I 387 W/m 5,3 C 7,7 C 19,3 km/h (3 Bft)
01.05.2022 18:40 11,4 C 16,7 C 66 % 1022,6 hPa 0,0 l/m 12,9 km/h (3 Bft) N-NO 13 0 min 1,0 UV-I 334 W/m 5,3 C 7,7 C 17,7 km/h (3 Bft)
01.05.2022 18:42 11,4 C 16,7 C 67 % 1022,6 hPa 0,0 l/m 10,8 km/h (2 Bft) N 9 0 min 1,0 UV-I 272 W/m 5,5 C 8,7 C 17,7 km/h (3 Bft)
01.05.2022 18:44 11,4 C 16,1 C 67 % 1022,6 hPa 0,0 l/m 12,2 km/h (2 Bft) N-NW 344 0 min 0,9 UV-I 214 W/m 5,5 C 8,0 C 17,7 km/h (3 Bft)
01.05.2022 18:46 11,3 C 15,0 C 66 % 1022,7 hPa 0,0 l/m 11,1 km/h (2 Bft) N 355 0 min 0,8 UV-I 204 W/m 5,2 C 8,5 C 16,1 km/h (3 Bft)
01.05.2022 18:48 11,2 C 14,4 C 67 % 1022,6 hPa 0,0 l/m 13,1 km/h (3 Bft) N 9 0 min 0,8 UV-I 215 W/m 5,3 C 7,4 C 17,7 km/h (3 Bft)
01.05.2022 18:50 11,2 C 13,9 C 66 % 1022,6 hPa 0,0 l/m 10,4 km/h (2 Bft) N 11 0 min 0,8 UV-I 230 W/m 5,1 C 8,7 C 19,3 km/h (3 Bft)
01.05.2022 18:52 11,2 C 13,9 C 67 % 1022,6 hPa 0,0 l/m 9,3 km/h (2 Bft) N 11 0 min 0,8 UV-I 193 W/m 5,3 C 9,3 C 14,5 km/h (3 Bft)
01.05.2022 18:54 11,2 C 13,9 C 69 % 1022,5 hPa 0,0 l/m 7,3 km/h (2 Bft) N-NO 23 0 min 0,7 UV-I 156 W/m 5,7 C 10,6 C 11,3 km/h (2 Bft)
01.05.2022 18:56 11,1 C 13,3 C 68 % 1022,5 hPa 0,0 l/m 7,6 km/h (2 Bft) N-NO 18 0 min 0,7 UV-I 144 W/m 5,4 C 10,3 C 12,9 km/h (3 Bft)
01.05.2022 18:58 11,1 C 13,3 C 68 % 1022,5 hPa 0,0 l/m 8,1 km/h (2 Bft) N-NO 17 0 min 0,6 UV-I 139 W/m 5,4 C 9,9 C 14,5 km/h (3 Bft)
01.05.2022 19:00 10,9 C 12,8 C 69 % 1022,5 hPa 0,0 l/m 6,0 km/h (2 Bft) N 9 0 min 0,6 UV-I 132 W/m 5,4 C 10,9 C 8,0 km/h (2 Bft)
01.05.2022 19:02 10,9 C 12,2 C 69 % 1022,5 hPa 0,0 l/m 6,6 km/h (2 Bft) N-NO 33 0 min 0,6 UV-I 130 W/m 5,4 C 10,8 C 9,7 km/h (2 Bft)
01.05.2022 19:04 10,8 C 12,2 C 69 % 1022,6 hPa 0,0 l/m 6,8 km/h (2 Bft) NO 39 0 min 0,6 UV-I 130 W/m 5,3 C 10,5 C 9,7 km/h (2 Bft)
01.05.2022 19:06 10,8 C 12,2 C 68 % 1022,5 hPa 0,0 l/m 9,7 km/h (2 Bft) N 11 0 min 0,6 UV-I 132 W/m 5,1 C 8,6 C 14,5 km/h (3 Bft)
01.05.2022 19:08 10,8 C 12,2 C 68 % 1022,5 hPa 0,0 l/m 9,7 km/h (2 Bft) N-NO 17 0 min 0,5 UV-I 126 W/m 5,1 C 8,6 C 14,5 km/h (3 Bft)
01.05.2022 19:10 10,8 C 11,7 C 68 % 1022,5 hPa 0,0 l/m 11,7 km/h (2 Bft) N-NO 20 0 min 0,5 UV-I 120 W/m 5,1 C 7,6 C 16,1 km/h (3 Bft)
01.05.2022 19:12 10,7 C 11,7 C 68 % 1022,6 hPa 0,0 l/m 12,1 km/h (2 Bft) N-NO 31 0 min 0,5 UV-I 114 W/m 5,0 C 7,3 C 17,7 km/h (3 Bft)
01.05.2022 19:14 10,7 C 11,7 C 68 % 1022,6 hPa 0,0 l/m 11,3 km/h (2 Bft) N-NO 27 0 min 0,5 UV-I 108 W/m 5,0 C 7,7 C 17,7 km/h (3 Bft)
01.05.2022 19:16 10,7 C 11,1 C 69 % 1022,6 hPa 0,0 l/m 8,3 km/h (2 Bft) N 355 0 min 0,2 UV-I 102 W/m 5,2 C 9,4 C 12,9 km/h (3 Bft)
01.05.2022 19:18 10,6 C 11,1 C 69 % 1022,5 hPa 0,0 l/m 9,2 km/h (2 Bft) N-NO 23 0 min 0,0 UV-I 94 W/m 5,2 C 8,7 C 14,5 km/h (3 Bft)
01.05.2022 19:20 10,6 C 11,1 C 69 % 1022,5 hPa 0,0 l/m 7,4 km/h (2 Bft) N-NO 22 0 min 0,0 UV-I 86 W/m 5,2 C 9,9 C 12,9 km/h (3 Bft)
01.05.2022 19:22 10,5 C 11,1 C 70 % 1022,6 hPa 0,0 l/m 8,2 km/h (2 Bft) N 5 0 min 0,0 UV-I 80 W/m 5,3 C 9,2 C 12,9 km/h (3 Bft)
01.05.2022 19:24 10,5 C 11,1 C 70 % 1022,6 hPa 0,0 l/m 7,1 km/h (2 Bft) N-NO 12 0 min 0,0 UV-I 77 W/m 5,3 C 10,0 C 12,9 km/h (3 Bft)
01.05.2022 19:26 10,4 C 11,1 C 70 % 1022,5 hPa 0,0 l/m 8,1 km/h (2 Bft) N 5 0 min 0,0 UV-I 76 W/m 5,2 C 9,2 C 12,9 km/h (3 Bft)
01.05.2022 19:28 10,3 C 10,6 C 70 % 1022,6 hPa 0,0 l/m 7,4 km/h (2 Bft) N-NO 22 0 min 0,0 UV-I 75 W/m 5,1 C 9,6 C 12,9 km/h (3 Bft)
01.05.2022 19:30 10,3 C 10,6 C 70 % 1022,5 hPa 0,0 l/m 6,8 km/h (2 Bft) N-NO 19 0 min 0,0 UV-I 75 W/m 5,1 C 10,0 C 11,3 km/h (2 Bft)
01.05.2022 19:32 10,2 C 10,6 C 71 % 1022,6 hPa 0,0 l/m 6,4 km/h (2 Bft) N-NO 18 0 min 0,0 UV-I 75 W/m 5,2 C 10,2 C 11,3 km/h (2 Bft)
01.05.2022 19:34 10,2 C 10,6 C 71 % 1022,6 hPa 0,0 l/m 8,4 km/h (2 Bft) N 5 0 min 0,0 UV-I 72 W/m 5,2 C 8,8 C 14,5 km/h (3 Bft)
01.05.2022 19:36 10,2 C 10,6 C 69 % 1022,7 hPa 0,0 l/m 11,0 km/h (2 Bft) N 5 0 min 0,0 UV-I 70 W/m 4,8 C 7,3 C 16,1 km/h (3 Bft)
01.05.2022 19:38 10,3 C 10,6 C 70 % 1022,6 hPa 0,0 l/m 8,5 km/h (2 Bft) N 355 0 min 0,0 UV-I 70 W/m 5,1 C 8,8 C 12,9 km/h (3 Bft)
01.05.2022 19:40 10,2 C 10,6 C 70 % 1022,6 hPa 0,0 l/m 6,5 km/h (2 Bft) N-NO 17 0 min 0,0 UV-I 75 W/m 5,0 C 10,2 C 11,3 km/h (2 Bft)
01.05.2022 19:42 10,1 C 10,6 C 70 % 1022,6 hPa 0,0 l/m 7,1 km/h (2 Bft) N-NO 17 0 min 0,0 UV-I 79 W/m 4,9 C 9,6 C 9,7 km/h (2 Bft)
01.05.2022 19:44 10,1 C 10,6 C 70 % 1022,6 hPa 0,0 l/m 5,1 km/h (1 Bft) N-NO 18 0 min 0,0 UV-I 86 W/m 4,9 C 10,1 C 8,0 km/h (2 Bft)
01.05.2022 19:46 10,1 C 10,6 C 71 % 1022,6 hPa 0,0 l/m 7,2 km/h (2 Bft) N 5 0 min 0,0 UV-I 100 W/m 5,1 C 9,5 C 11,3 km/h (2 Bft)
01.05.2022 19:48 10,1 C 10,6 C 71 % 1022,7 hPa 0,0 l/m 6,5 km/h (2 Bft) N 5 0 min 0,0 UV-I 101 W/m 5,1 C 10,1 C 11,3 km/h (2 Bft)
01.05.2022 19:50 10,1 C 10,6 C 70 % 1022,6 hPa 0,0 l/m 7,9 km/h (2 Bft) N 360 0 min 0,0 UV-I 88 W/m 4,9 C 9,0 C 12,9 km/h (3 Bft)
01.05.2022 19:52 10,1 C 10,6 C 70 % 1022,6 hPa 0,0 l/m 8,2 km/h (2 Bft) N-NO 15 0 min 0,0 UV-I 87 W/m 4,9 C 8,8 C 12,9 km/h (3 Bft)
01.05.2022 19:54 10,1 C 10,6 C 70 % 1022,6 hPa 0,0 l/m 6,6 km/h (2 Bft) N 355 0 min 0,0 UV-I 84 W/m 4,9 C 10,0 C 9,7 km/h (2 Bft)
01.05.2022 19:56 10,1 C 10,0 C 70 % 1022,6 hPa 0,0 l/m 7,7 km/h (2 Bft) N 360 0 min 0,0 UV-I 72 W/m 4,9 C 9,2 C 12,9 km/h (3 Bft)
01.05.2022 19:58 10,1 C 10,0 C 70 % 1022,6 hPa 0,0 l/m 8,0 km/h (2 Bft) N 360 0 min 0,0 UV-I 62 W/m 4,9 C 9,0 C 12,9 km/h (3 Bft)
01.05.2022 20:00 10,1 C 10,0 C 70 % 1022,6 hPa 0,0 l/m 9,1 km/h (2 Bft) N-NO 12 0 min 0,0 UV-I 56 W/m 4,9 C 8,2 C 12,9 km/h (3 Bft)
01.05.2022 20:02 9,9 C 9,4 C 70 % 1022,6 hPa 0,0 l/m 6,7 km/h (2 Bft) N-NO 13 0 min 0,0 UV-I 53 W/m 4,7 C 9,7 C 11,3 km/h (2 Bft)
01.05.2022 20:04 9,9 C 9,4 C 71 % 1022,6 hPa 0,0 l/m 6,8 km/h (2 Bft) N-NO 19 0 min 0,0 UV-I 47 W/m 4,9 C 9,6 C 11,3 km/h (2 Bft)
01.05.2022 20:06 9,8 C 9,4 C 71 % 1022,7 hPa 0,0 l/m 8,0 km/h (2 Bft) N 355 0 min 0,0 UV-I 43 W/m 4,8 C 8,6 C 12,9 km/h (3 Bft)
01.05.2022 20:08 9,7 C 9,4 C 71 % 1022,6 hPa 0,0 l/m 6,3 km/h (2 Bft) N 355 0 min 0,0 UV-I 39 W/m 4,7 C 9,7 C 11,3 km/h (2 Bft)
01.05.2022 20:10 9,7 C 8,9 C 72 % 1022,7 hPa 0,0 l/m 7,1 km/h (2 Bft) N-NO 19 0 min 0,0 UV-I 37 W/m 4,9 C 9,2 C 11,3 km/h (2 Bft)
01.05.2022 20:12 9,6 C 8,9 C 72 % 1022,6 hPa 0,0 l/m 7,0 km/h (2 Bft) N 355 0 min 0,0 UV-I 34 W/m 4,8 C 9,2 C 12,9 km/h (3 Bft)
01.05.2022 20:14 9,4 C 8,9 C 72 % 1022,6 hPa 0,0 l/m 6,8 km/h (2 Bft) N 5 0 min 0,0 UV-I 33 W/m 4,6 C 9,1 C 8,0 km/h (2 Bft)
01.05.2022 20:16 9,3 C 8,3 C 73 % 1022,6 hPa 0,0 l/m 7,5 km/h (2 Bft) N 11 0 min 0,0 UV-I 31 W/m 4,7 C 8,5 C 11,3 km/h (2 Bft)
01.05.2022 20:18 9,3 C 8,3 C 72 % 1022,7 hPa 0,0 l/m 7,2 km/h (2 Bft) N-NO 13 0 min 0,0 UV-I 30 W/m 4,5 C 8,7 C 11,3 km/h (2 Bft)
01.05.2022 20:20 9,2 C 8,3 C 73 % 1022,7 hPa 0,0 l/m 5,6 km/h (1 Bft) N-NO 15 0 min 0,0 UV-I 28 W/m 4,6 C 9,2 C 8,0 km/h (2 Bft)
01.05.2022 20:22 9,1 C 7,8 C 73 % 1022,7 hPa 0,0 l/m 5,4 km/h (1 Bft) N 10 0 min 0,0 UV-I 26 W/m 4,5 C 9,1 C 8,0 km/h (2 Bft)
01.05.2022 20:24 9,0 C 7,8 C 73 % 1022,7 hPa 0,0 l/m 6,0 km/h (2 Bft) N-NO 19 0 min 0,0 UV-I 24 W/m 4,4 C 9,0 C 8,0 km/h (2 Bft)
01.05.2022 20:26 8,9 C 7,8 C 74 % 1022,7 hPa 0,0 l/m 7,2 km/h (2 Bft) N-NO 21 0 min 0,0 UV-I 23 W/m 4,5 C 8,3 C 11,3 km/h (2 Bft)
01.05.2022 20:28 8,8 C 7,2 C 74 % 1022,6 hPa 0,0 l/m 6,0 km/h (2 Bft) N-NO 32 0 min 0,0 UV-I 22 W/m 4,4 C 8,8 C 9,7 km/h (2 Bft)
01.05.2022 20:30 8,8 C 7,2 C 74 % 1022,7 hPa 0,0 l/m 7,3 km/h (2 Bft) N-NO 30 0 min 0,0 UV-I 21 W/m 4,4 C 8,1 C 12,9 km/h (3 Bft)
01.05.2022 20:32 8,7 C 7,2 C 74 % 1022,6 hPa 0,0 l/m 5,8 km/h (2 Bft) N 11 0 min 0,0 UV-I 20 W/m 4,3 C 8,7 C 8,0 km/h (2 Bft)
01.05.2022 20:34 8,7 C 7,2 C 74 % 1022,6 hPa 0,0 l/m 6,3 km/h (2 Bft) N-NO 23 0 min 0,0 UV-I 19 W/m 4,3 C 8,7 C 8,0 km/h (2 Bft)
01.05.2022 20:36 8,7 C 7,2 C 74 % 1022,6 hPa 0,0 l/m 5,5 km/h (1 Bft) N-NO 19 0 min 0,0 UV-I 17 W/m 4,3 C 8,7 C 8,0 km/h (2 Bft)
01.05.2022 20:38 8,7 C 6,7 C 74 % 1022,6 hPa 0,0 l/m 6,2 km/h (2 Bft) N-NO 21 0 min 0,0 UV-I 15 W/m 4,3 C 8,7 C 8,0 km/h (2 Bft)
01.05.2022 20:40 8,6 C 6,7 C 74 % 1022,6 hPa 0,0 l/m 6,9 km/h (2 Bft) N-NO 17 0 min 0,0 UV-I 12 W/m 4,2 C 8,2 C 11,3 km/h (2 Bft)
01.05.2022 20:42 8,4 C 6,7 C 75 % 1022,6 hPa 0,0 l/m 7,7 km/h (2 Bft) N-NO 22 0 min 0,0 UV-I 12 W/m 4,2 C 7,4 C 12,9 km/h (3 Bft)
01.05.2022 20:44 8,3 C 6,7 C 75 % 1022,6 hPa 0,0 l/m 7,5 km/h (2 Bft) N-NO 19 0 min 0,0 UV-I 10 W/m 4,1 C 7,4 C 9,7 km/h (2 Bft)
01.05.2022 20:46 8,2 C 6,1 C 75 % 1022,6 hPa 0,0 l/m 7,9 km/h (2 Bft) NO 35 0 min 0,0 UV-I 7 W/m 4,0 C 7,0 C 12,9 km/h (3 Bft)
01.05.2022 20:48 8,2 C 6,1 C 75 % 1022,6 hPa 0,0 l/m 7,5 km/h (2 Bft) N-NO 28 0 min 0,0 UV-I 6 W/m 4,0 C 7,3 C 12,9 km/h (3 Bft)
01.05.2022 20:50 8,1 C 6,1 C 75 % 1022,6 hPa 0,0 l/m 6,4 km/h (2 Bft) N-NO 24 0 min 0,0 UV-I 4 W/m 3,9 C 8,1 C 8,0 km/h (2 Bft)
01.05.2022 20:52 8,1 C 6,1 C 75 % 1022,6 hPa 0,0 l/m 7,2 km/h (2 Bft) N-NO 16 0 min 0,0 UV-I 0 W/m 3,9 C 7,5 C 12,9 km/h (3 Bft)
01.05.2022 20:54 8,0 C 6,1 C 75 % 1022,6 hPa 0,0 l/m 5,1 km/h (1 Bft) N-NO 17 0 min 0,0 UV-I 0 W/m 3,8 C 8,0 C 6,4 km/h (2 Bft)
01.05.2022 20:56 7,9 C 6,1 C 76 % 1022,7 hPa 0,0 l/m 4,9 km/h (1 Bft) N-NO 16 0 min 0,0 UV-I 0 W/m 3,9 C 7,9 C 6,4 km/h (2 Bft)
01.05.2022 20:58 7,9 C 5,6 C 76 % 1022,7 hPa 0,0 l/m 4,4 km/h (1 Bft) N-NO 13 0 min 0,0 UV-I 0 W/m 3,9 C 7,9 C 6,4 km/h (2 Bft)
01.05.2022 21:00 7,9 C 5,6 C 76 % 1022,7 hPa 0,0 l/m 4,8 km/h (1 Bft) N-NO 12 0 min 0,0 UV-I 0 W/m 3,9 C 7,9 C 8,0 km/h (2 Bft)
01.05.2022 21:02 7,9 C 5,6 C 76 % 1022,7 hPa 0,0 l/m 5,3 km/h (1 Bft) N-NO 12 0 min 0,0 UV-I 0 W/m 3,9 C 7,9 C 6,4 km/h (2 Bft)
01.05.2022 21:04 7,9 C 5,6 C 76 % 1022,7 hPa 0,0 l/m 4,8 km/h (1 Bft) N-NO 13 0 min 0,0 UV-I 0 W/m 3,9 C 7,9 C 6,4 km/h (2 Bft)
01.05.2022 21:06 7,9 C 5,6 C 75 % 1022,8 hPa 0,0 l/m 4,5 km/h (1 Bft) N 11 0 min 0,0 UV-I 0 W/m 3,7 C 7,9 C 6,4 km/h (2 Bft)
01.05.2022 21:08 8,0 C 5,6 C 75 % 1022,8 hPa 0,0 l/m 5,1 km/h (1 Bft) N 11 0 min 0,0 UV-I 0 W/m 3,8 C 8,0 C 6,4 km/h (2 Bft)
01.05.2022 21:10 8,0 C 5,6 C 75 % 1022,8 hPa 0,0 l/m 4,8 km/h (1 Bft) N 9 0 min 0,0 UV-I 0 W/m 3,8 C 8,0 C 6,4 km/h (2 Bft)
01.05.2022 21:12 7,9 C 5,6 C 75 % 1022,8 hPa 0,0 l/m 5,7 km/h (1 Bft) N 9 0 min 0,0 UV-I 0 W/m 3,7 C 7,9 C 6,4 km/h (2 Bft)
01.05.2022 21:14 7,9 C 5,6 C 75 % 1022,8 hPa 0,0 l/m 5,4 km/h (1 Bft) N 9 0 min 0,0 UV-I 0 W/m 3,7 C 7,9 C 6,4 km/h (2 Bft)
01.05.2022 21:16 7,8 C 5,6 C 76 % 1022,8 hPa 0,0 l/m 5,0 km/h (1 Bft) N 9 0 min 0,0 UV-I 0 W/m 3,8 C 7,8 C 6,4 km/h (2 Bft)
01.05.2022 21:18 7,8 C 5,6 C 76 % 1022,8 hPa 0,0 l/m 5,8 km/h (2 Bft) N 9 0 min 0,0 UV-I 0 W/m 3,8 C 7,8 C 8,0 km/h (2 Bft)
01.05.2022 21:20 7,8 C 5,6 C 76 % 1022,9 hPa 0,0 l/m 5,6 km/h (1 Bft) N 9 0 min 0,0 UV-I 0 W/m 3,8 C 7,8 C 6,4 km/h (2 Bft)
01.05.2022 21:22 7,7 C 5,6 C 76 % 1022,9 hPa 0,0 l/m 5,8 km/h (2 Bft) N 9 0 min 0,0 UV-I 0 W/m 3,7 C 7,7 C 6,4 km/h (2 Bft)
01.05.2022 21:24 7,8 C 5,6 C 76 % 1023,0 hPa 0,0 l/m 6,5 km/h (2 Bft) N 5 0 min 0,0 UV-I 0 W/m 3,8 C 7,7 C 8,0 km/h (2 Bft)
01.05.2022 21:26 7,7 C 5,0 C 76 % 1023,0 hPa 0,0 l/m 5,9 km/h (2 Bft) N 5 0 min 0,0 UV-I 0 W/m 3,7 C 7,7 C 8,0 km/h (2 Bft)
01.05.2022 21:28 7,7 C 5,0 C 76 % 1023,0 hPa 0,0 l/m 4,6 km/h (1 Bft) N 5 0 min 0,0 UV-I 0 W/m 3,7 C 7,7 C 6,4 km/h (2 Bft)
01.05.2022 21:30 7,7 C 5,0 C 76 % 1022,8 hPa 0,0 l/m 4,1 km/h (1 Bft) N 5 0 min 0,0 UV-I 0 W/m 3,7 C 7,7 C 6,4 km/h (2 Bft)
01.05.2022 21:32 7,6 C 5,0 C 76 % 1023,0 hPa 0,0 l/m 3,1 km/h (1 Bft) N 5 0 min 0,0 UV-I 0 W/m 3,6 C 7,6 C 4,8 km/h (1 Bft)
01.05.2022 21:34 7,4 C 5,0 C 77 % 1023,0 hPa 0,0 l/m 3,6 km/h (1 Bft) N 5 0 min 0,0 UV-I 0 W/m 3,6 C 7,4 C 4,8 km/h (1 Bft)
01.05.2022 21:36 7,4 C 5,0 C 77 % 1023,0 hPa 0,0 l/m 2,7 km/h (1 Bft) N 5 0 min 0,0 UV-I 0 W/m 3,6 C 7,4 C 4,8 km/h (1 Bft)
01.05.2022 21:38 7,4 C 5,0 C 77 % 1023,0 hPa 0,0 l/m 2,3 km/h (1 Bft) N 5 0 min 0,0 UV-I 0 W/m 3,6 C 7,4 C 3,2 km/h (1 Bft)
01.05.2022 21:40 7,4 C 5,0 C 77 % 1023,0 hPa 0,0 l/m 2,3 km/h (1 Bft) N 5 0 min 0,0 UV-I 0 W/m 3,6 C 7,4 C 3,2 km/h (1 Bft)
01.05.2022 21:42 7,3 C 5,0 C 77 % 1023,1 hPa 0,0 l/m 0,7 km/h (0 Bft) N 5 0 min 0,0 UV-I 0 W/m 3,5 C 7,3 C 3,2 km/h (1 Bft)
01.05.2022 21:44 7,3 C 5,0 C 77 % 1023,0 hPa 0,0 l/m 0,2 km/h (0 Bft) N 5 0 min 0,0 UV-I 0 W/m 3,5 C 7,3 C 1,6 km/h (1 Bft)
01.05.2022 21:46 7,2 C 4,4 C 77 % 1023,1 hPa 0,0 l/m 2,1 km/h (1 Bft) N 5 0 min 0,0 UV-I 0 W/m 3,4 C 7,2 C 3,2 km/h (1 Bft)
01.05.2022 21:48 7,1 C 4,4 C 78 % 1023,0 hPa 0,0 l/m 2,2 km/h (1 Bft) N 5 0 min 0,0 UV-I 0 W/m 3,5 C 7,1 C 3,2 km/h (1 Bft)
01.05.2022 21:50 7,1 C 4,4 C 78 % 1023,0 hPa 0,0 l/m 3,2 km/h (1 Bft) N 5 0 min 0,0 UV-I 0 W/m 3,5 C 7,1 C 4,8 km/h (1 Bft)
01.05.2022 21:52 7,1 C 4,4 C 78 % 1023,0 hPa 0,0 l/m 2,7 km/h (1 Bft) N 5 0 min 0,0 UV-I 0 W/m 3,5 C 7,1 C 4,8 km/h (1 Bft)
01.05.2022 21:54 7,2 C 4,4 C 77 % 1023,0 hPa 0,0 l/m 2,6 km/h (1 Bft) N 5 0 min 0,0 UV-I 0 W/m 3,4 C 7,2 C 4,8 km/h (1 Bft)
01.05.2022 21:56 7,2 C 4,4 C 77 % 1023,0 hPa 0,0 l/m 3,3 km/h (1 Bft) N 5 0 min 0,0 UV-I 0 W/m 3,4 C 7,2 C 4,8 km/h (1 Bft)
01.05.2022 21:58 7,2 C 5,0 C 77 % 1023,0 hPa 0,0 l/m 4,2 km/h (1 Bft) N 5 0 min 0,0 UV-I 0 W/m 3,4 C 7,2 C 6,4 km/h (2 Bft)
01.05.2022 22:00 7,2 C 5,0 C 77 % 1023,1 hPa 0,0 l/m 5,3 km/h (1 Bft) N 5 0 min 0,0 UV-I 0 W/m 3,4 C 7,2 C 8,0 km/h (2 Bft)
01.05.2022 22:02 7,2 C 4,4 C 77 % 1023,0 hPa 0,0 l/m 4,5 km/h (1 Bft) N 5 0 min 0,0 UV-I 0 W/m 3,4 C 7,2 C 6,4 km/h (2 Bft)
01.05.2022 22:04 7,2 C 4,4 C 77 % 1023,1 hPa 0,0 l/m 2,9 km/h (1 Bft) N 5 0 min 0,0 UV-I 0 W/m 3,4 C 7,2 C 4,8 km/h (1 Bft)
01.05.2022 22:06 7,2 C 4,4 C 77 % 1023,1 hPa 0,0 l/m 3,8 km/h (1 Bft) N 5 0 min 0,0 UV-I 0 W/m 3,4 C 7,2 C 8,0 km/h (2 Bft)
01.05.2022 22:08 7,1 C 4,4 C 77 % 1023,1 hPa 0,0 l/m 3,7 km/h (1 Bft) N 5 0 min 0,0 UV-I 0 W/m 3,3 C 7,1 C 6,4 km/h (2 Bft)
01.05.2022 22:10 7,1 C 4,4 C 77 % 1023,1 hPa 0,0 l/m 3,8 km/h (1 Bft) N 5 0 min 0,0 UV-I 0 W/m 3,3 C 7,1 C 4,8 km/h (1 Bft)
01.05.2022 22:12 6,9 C 3,9 C 77 % 1023,0 hPa 0,0 l/m 2,7 km/h (1 Bft) N 5 0 min 0,0 UV-I 0 W/m 3,2 C 6,9 C 4,8 km/h (1 Bft)
01.05.2022 22:14 6,8 C 3,9 C 78 % 1023,1 hPa 0,0 l/m 0,5 km/h (0 Bft) N 5 0 min 0,0 UV-I 0 W/m 3,2 C 6,8 C 3,2 km/h (1 Bft)
01.05.2022 22:16 6,6 C 3,9 C 78 % 1023,1 hPa 0,0 l/m 0,0 km/h (0 Bft) N 5 0 min 0,0 UV-I 0 W/m 3,0 C 6,6 C 1,6 km/h (1 Bft)
01.05.2022 22:18 6,6 C 3,9 C 79 % 1023,1 hPa 0,0 l/m 0,0 km/h (0 Bft) N 5 0 min 0,0 UV-I 0 W/m 3,2 C 6,6 C 0,0 km/h (0 Bft)
01.05.2022 22:20 6,6 C 3,9 C 79 % 1023,1 hPa 0,0 l/m 0,0 km/h (0 Bft) N 5 0 min 0,0 UV-I 0 W/m 3,2 C 6,6 C 0,0 km/h (0 Bft)
01.05.2022 22:22 6,5 C 3,9 C 79 % 1023,2 hPa 0,0 l/m 0,0 km/h (0 Bft) N 5 0 min 0,0 UV-I 0 W/m 3,1 C 6,5 C 0,0 km/h (0 Bft)
01.05.2022 22:24 6,5 C 3,9 C 79 % 1023,0 hPa 0,0 l/m 0,0 km/h (0 Bft) N 5 0 min 0,0 UV-I 0 W/m 3,1 C 6,5 C 0,0 km/h (0 Bft)
01.05.2022 22:26 6,6 C 3,9 C 79 % 1023,1 hPa 0,0 l/m 0,0 km/h (0 Bft) N 5 0 min 0,0 UV-I 0 W/m 3,2 C 6,6 C 0,0 km/h (0 Bft)
01.05.2022 22:28 6,5 C 3,9 C 79 % 1023,0 hPa 0,0 l/m 0,0 km/h (0 Bft) N 5 0 min 0,0 UV-I 0 W/m 3,1 C 6,5 C 0,0 km/h (0 Bft)
01.05.2022 22:30 6,5 C 3,9 C 79 % 1023,0 hPa 0,0 l/m 0,1 km/h (0 Bft) N 5 0 min 0,0 UV-I 0 W/m 3,1 C 6,5 C 1,6 km/h (1 Bft)
01.05.2022 22:32 6,6 C 3,9 C 79 % 1023,0 hPa 0,0 l/m 0,4 km/h (0 Bft) N 5 0 min 0,0 UV-I 0 W/m 3,2 C 6,6 C 1,6 km/h (1 Bft)
01.05.2022 22:34 6,7 C 3,9 C 79 % 1022,9 hPa 0,0 l/m 0,0 km/h (0 Bft) N 5 0 min 0,0 UV-I 0 W/m 3,3 C 6,7 C 1,6 km/h (1 Bft)
01.05.2022 22:36 6,6 C 3,3 C 79 % 1023,1 hPa 0,0 l/m 0,0 km/h (0 Bft) N 5 0 min 0,0 UV-I 0 W/m 3,2 C 6,6 C 0,0 km/h (0 Bft)
01.05.2022 22:38 6,4 C 3,3 C 79 % 1023,0 hPa 0,0 l/m 0,0 km/h (0 Bft) N 5 0 min 0,0 UV-I 0 W/m 3,0 C 6,4 C 0,0 km/h (0 Bft)
01.05.2022 22:40 6,2 C 3,3 C 79 % 1023,0 hPa 0,0 l/m 0,0 km/h (0 Bft) N 5 0 min 0,0 UV-I 0 W/m 2,8 C 6,2 C 0,0 km/h (0 Bft)
01.05.2022 22:42 6,1 C 3,3 C 80 % 1022,9 hPa 0,0 l/m 0,0 km/h (0 Bft) N 5 0 min 0,0 UV-I 0 W/m 2,9 C 6,1 C 0,0 km/h (0 Bft)
01.05.2022 22:44 6,1 C 3,3 C 81 % 1022,9 hPa 0,0 l/m 0,0 km/h (0 Bft) N 5 0 min 0,0 UV-I 0 W/m 3,1 C 6,1 C 0,0 km/h (0 Bft)
01.05.2022 22:46 6,1 C 3,3 C 81 % 1023,0 hPa 0,0 l/m 0,0 km/h (0 Bft) N 5 0 min 0,0 UV-I 0 W/m 3,1 C 6,1 C 0,0 km/h (0 Bft)
01.05.2022 22:48 6,0 C 2,8 C 81 % 1023,0 hPa 0,0 l/m 0,0 km/h (0 Bft) N 5 0 min 0,0 UV-I 0 W/m 3,0 C 6,0 C 0,0 km/h (0 Bft)
01.05.2022 22:50 5,9 C 2,8 C 81 % 1023,0 hPa 0,0 l/m 0,3 km/h (0 Bft) N 5 0 min 0,0 UV-I 0 W/m 2,9 C 5,9 C 1,6 km/h (1 Bft)
01.05.2022 22:52 5,9 C 3,3 C 81 % 1023,0 hPa 0,0 l/m 0,8 km/h (0 Bft) N 5 0 min 0,0 UV-I 0 W/m 2,9 C 5,9 C 1,6 km/h (1 Bft)
01.05.2022 22:54 5,9 C 3,3 C 81 % 1022,9 hPa 0,0 l/m 0,9 km/h (0 Bft) N 5 0 min 0,0 UV-I 0 W/m 2,9 C 5,9 C 1,6 km/h (1 Bft)
01.05.2022 22:56 5,9 C 3,3 C 81 % 1022,9 hPa 0,0 l/m 1,0 km/h (0 Bft) N 5 0 min 0,0 UV-I 0 W/m 2,9 C 5,9 C 1,6 km/h (1 Bft)
01.05.2022 22:58 5,8 C 3,3 C 81 % 1022,9 hPa 0,0 l/m 0,4 km/h (0 Bft) N 5 0 min 0,0 UV-I 0 W/m 2,8 C 5,8 C 1,6 km/h (1 Bft)
01.05.2022 23:00 5,7 C 3,3 C 81 % 1023,0 hPa 0,0 l/m 0,6 km/h (0 Bft) N 5 0 min 0,0 UV-I 0 W/m 2,7 C 5,7 C 1,6 km/h (1 Bft)
01.05.2022 23:02 5,7 C 3,3 C 82 % 1022,9 hPa 0,0 l/m 1,3 km/h (1 Bft) N 5 0 min 0,0 UV-I 0 W/m 2,9 C 5,7 C 3,2 km/h (1 Bft)
01.05.2022 23:04 5,6 C 3,3 C 82 % 1023,0 hPa 0,0 l/m 2,3 km/h (1 Bft) N 5 0 min 0,0 UV-I 0 W/m 2,8 C 5,6 C 3,2 km/h (1 Bft)
01.05.2022 23:06 5,6 C 2,8 C 82 % 1022,9 hPa 0,0 l/m 1,7 km/h (1 Bft) N 5 0 min 0,0 UV-I 0 W/m 2,8 C 5,6 C 3,2 km/h (1 Bft)
01.05.2022 23:08 5,6 C 2,8 C 82 % 1023,0 hPa 0,0 l/m 2,1 km/h (1 Bft) N 5 0 min 0,0 UV-I 0 W/m 2,8 C 5,6 C 3,2 km/h (1 Bft)
01.05.2022 23:10 5,7 C 2,8 C 82 % 1023,0 hPa 0,0 l/m 1,6 km/h (1 Bft) N 5 0 min 0,0 UV-I 0 W/m 2,9 C 5,7 C 3,2 km/h (1 Bft)
01.05.2022 23:12 5,9 C 2,8 C 82 % 1023,0 hPa 0,0 l/m 1,5 km/h (1 Bft) N 5 0 min 0,0 UV-I 0 W/m 3,1 C 5,9 C 3,2 km/h (1 Bft)
01.05.2022 23:14 5,9 C 2,8 C 82 % 1023,0 hPa 0,0 l/m 1,5 km/h (1 Bft) N 5 0 min 0,0 UV-I 0 W/m 3,1 C 5,9 C 3,2 km/h (1 Bft)
01.05.2022 23:16 6,1 C 2,8 C 81 % 1023,0 hPa 0,0 l/m 0,5 km/h (0 Bft) N 5 0 min 0,0 UV-I 0 W/m 3,1 C 6,1 C 1,6 km/h (1 Bft)
01.05.2022 23:18 6,0 C 2,8 C 80 % 1023,0 hPa 0,0 l/m 0,6 km/h (0 Bft) N 5 0 min 0,0 UV-I 0 W/m 2,8 C 6,0 C 1,6 km/h (1 Bft)
01.05.2022 23:20 5,7 C 2,2 C 81 % 1022,9 hPa 0,0 l/m 0,4 km/h (0 Bft) N 5 0 min 0,0 UV-I 0 W/m 2,7 C 5,7 C 1,6 km/h (1 Bft)
01.05.2022 23:22 5,8 C 2,2 C 81 % 1022,8 hPa 0,0 l/m 0,1 km/h (0 Bft) N 5 0 min 0,0 UV-I 0 W/m 2,8 C 5,8 C 1,6 km/h (1 Bft)
01.05.2022 23:24 5,9 C 2,2 C 81 % 1022,9 hPa 0,0 l/m 1,6 km/h (1 Bft) N 5 0 min 0,0 UV-I 0 W/m 2,9 C 5,9 C 3,2 km/h (1 Bft)
01.05.2022 23:26 6,0 C 2,2 C 81 % 1022,9 hPa 0,0 l/m 1,8 km/h (1 Bft) N 5 0 min 0,0 UV-I 0 W/m 3,0 C 6,0 C 3,2 km/h (1 Bft)
01.05.2022 23:28 6,1 C 2,2 C 81 % 1022,8 hPa 0,0 l/m 1,1 km/h (1 Bft) N 5 0 min 0,0 UV-I 0 W/m 3,1 C 6,1 C 3,2 km/h (1 Bft)
01.05.2022 23:30 5,7 C 2,2 C 80 % 1022,9 hPa 0,0 l/m 0,0 km/h (0 Bft) N 5 0 min 0,0 UV-I 0 W/m 2,5 C 5,7 C 1,6 km/h (1 Bft)
01.05.2022 23:32 5,2 C 1,7 C 81 % 1022,9 hPa 0,0 l/m 0,0 km/h (0 Bft) N 5 0 min 0,0 UV-I 0 W/m 2,2 C 5,2 C 0,0 km/h (0 Bft)
01.05.2022 23:34 5,1 C 2,2 C 82 % 1022,9 hPa 0,0 l/m 0,0 km/h (0 Bft) N 5 0 min 0,0 UV-I 0 W/m 2,3 C 5,1 C 0,0 km/h (0 Bft)
01.05.2022 23:36 5,0 C 2,2 C 82 % 1022,9 hPa 0,0 l/m 0,0 km/h (0 Bft) N 5 0 min 0,0 UV-I 0 W/m 2,2 C 5,0 C 0,0 km/h (0 Bft)
01.05.2022 23:38 5,1 C 2,2 C 83 % 1022,8 hPa 0,0 l/m 0,2 km/h (0 Bft) N 5 0 min 0,0 UV-I 0 W/m 2,5 C 5,1 C 1,6 km/h (1 Bft)
01.05.2022 23:40 5,0 C 1,7 C 83 % 1022,9 hPa 0,0 l/m 0,1 km/h (0 Bft) N 5 0 min 0,0 UV-I 0 W/m 2,4 C 5,0 C 1,6 km/h (1 Bft)
01.05.2022 23:42 5,0 C 1,7 C 83 % 1022,9 hPa 0,0 l/m 0,2 km/h (0 Bft) N 5 0 min 0,0 UV-I 0 W/m 2,4 C 5,0 C 1,6 km/h (1 Bft)
01.05.2022 23:44 5,1 C 1,7 C 83 % 1022,9 hPa 0,0 l/m 0,3 km/h (0 Bft) N 5 0 min 0,0 UV-I 0 W/m 2,5 C 5,1 C 1,6 km/h (1 Bft)
01.05.2022 23:46 5,2 C 1,7 C 84 % 1022,8 hPa 0,0 l/m 0,0 km/h (0 Bft) N 5 0 min 0,0 UV-I 0 W/m 2,7 C 5,2 C 1,6 km/h (1 Bft)
01.05.2022 23:48 4,9 C 1,7 C 83 % 1022,8 hPa 0,0 l/m 0,1 km/h (0 Bft) N 5 0 min 0,0 UV-I 0 W/m 2,3 C 4,9 C 1,6 km/h (1 Bft)
01.05.2022 23:50 4,7 C 1,7 C 83 % 1022,8 hPa 0,0 l/m 0,0 km/h (0 Bft) N 5 0 min 0,0 UV-I 0 W/m 2,1 C 4,7 C 0,0 km/h (0 Bft)
01.05.2022 23:52 4,4 C 1,1 C 83 % 1022,8 hPa 0,0 l/m 0,0 km/h (0 Bft) N 5 0 min 0,0 UV-I 0 W/m 1,8 C 4,4 C 0,0 km/h (0 Bft)
01.05.2022 23:54 4,3 C 1,1 C 83 % 1022,7 hPa 0,0 l/m 0,0 km/h (0 Bft) N 5 0 min 0,0 UV-I 0 W/m 1,7 C 4,3 C 0,0 km/h (0 Bft)
01.05.2022 23:56 4,2 C 1,7 C 84 % 1022,7 hPa 0,0 l/m 0,0 km/h (0 Bft) N 5 0 min 0,0 UV-I 0 W/m 1,7 C 4,2 C 0,0 km/h (0 Bft)
01.05.2022 23:58 4,1 C 1,7 C 84 % 1022,7 hPa 0,0 l/m 0,0 km/h (0 Bft) N 5 0 min 0,0 UV-I 0 W/m 1,6 C 4,1 C 0,0 km/h (0 Bft)
01.05.2022 23:59 4,1 C 1,7 C 84 % 1022,7 hPa 0,0 l/m 0,0 km/h (0 Bft) N 0 0 min 0,0 UV-I 0 W/m 1,6 C 4,1 C 0,0 km/h (0 Bft)
_ Min-Zeit 02:34 01:20 12:16 18:54 - 00:24 - - - - - 02:34 02:34 00:24
Minimum _ -0,1 C -1,7 C 61 % 1022,5 hPa - 0,0 km/h (0 Bft) - - - - - -1,5 C -0,1 C 0,0 km/h (0 Bft)
_ Max-Zeit 14:26 11:20 03:18 00:48 00:00 15:20 - - 08:34 11:20 11:22 14:04 15:00 15:20
Maximum _ 12,1 C 19,4 C 92 % 1026,2 hPa 0,0 l/m 17,9 km/h
N-NW (3 Bft)
- - 2 min 3,8 UV-I 729 W/m 6,2 C 11,9 C 24,1 km/h
N (4 Bft)
Durchschnitt _ 6,9 C 8,0 C 77 % 1024,3 hPa #0,0 l/m 5,1 km/h (1 Bft) N - #4:46 h 1,8 UV-I 261 W/m 3,1 C 5,9 C 8,1 km/h (2 Bft)